[{"header": {"dx": 0.06612293990616946, "dy": 0.0552356325346848, "nx": 98, "ny": 59, "la1": 35.046912555036876, "la2": 31.78801023549047, "lo1": -121.43107172385933, "lo2": -114.95102361305473, "refTime": "2026042003", "parameterCategory": 1, "parameterNumber": 2}, "data": [3.82, 3.97, 3.97, 4.47, 4.92, 4.92, 5.36, 5.36, 5.36, 5.36, 5.36, 5.36, 8.05, 8.49, 8.49, 8.49, 8.94, 8.49, 9.39, 9.83, 9.33, 10.18, 9.13, 9.33, 9.46, 9.63, 9.4, 8.4, 8.14, 8.55, 7.67, 7.28, 9.11, 7.6, 6.71, 6.26, 5.36, 5.69, -0.0, -1.91, -2.21, -1.84, -1.39, -0.0, 3.82, 6.14, 7.68, 8.18, 8.55, 8.93, 8.72, 8.37, 9.2, 9.2, 9.63, 9.97, 9.97, 10.2, 10.2, 8.87, 9.32, 9.74, 10.14, 8.82, 7.27, 6.95, 7.47, 8.34, 8.8, 9.13, 9.42, 9.85, 9.16, 7.54, 7.98, 8.89, 8.43, 8.05, 8.43, 7.07, 2.33, -0.0, -0.0, -1.62, -3.82, -5.06, -5.06, -5.06, -3.11, -0.0, 1.84, 3.32, 5.1, 6.01, 6.9, 7.63, 7.63, 6.8, 3.82, 3.97, 3.97, 4.47, 4.92, 5.36, 5.36, 5.36, 5.36, 5.36, 5.36, 7.6, 8.05, 8.05, 8.94, 8.94, 8.05, 9.83, 9.39, 8.94, 10.73, 10.18, 10.0, 8.94, 8.03, 8.55, 7.37, 6.7, 6.28, 4.43, 1.55, -0.82, -4.29, -4.43, -1.52, -0.0, 2.4, 3.32, -0.0, -2.61, -2.61, -1.28, -0.0, 3.25, 5.9, 8.43, 9.2, 8.55, 8.55, 8.73, 8.73, 9.1, 9.4, 9.66, 9.85, 10.04, 9.54, 9.76, 9.32, 7.97, 9.29, 10.14, 9.2, 7.59, 6.58, 7.9, 8.54, 9.46, 9.54, 9.6, 9.64, 9.77, 9.76, 7.6, 8.05, 8.49, 8.49, 8.05, 8.43, 7.07, 2.33, -0.0, -0.0, -1.62, -3.82, -5.06, -5.06, -5.06, -3.11, -0.0, 1.84, 3.32, 5.1, 6.01, 6.9, 7.63, 7.63, 6.8, 3.82, 3.97, 4.41, 4.41, 4.92, 5.36, 5.36, 5.36, 5.36, 5.36, 4.92, 5.36, 8.05, 8.49, 8.05, 8.49, 8.94, 8.94, 8.94, 10.28, 9.39, 10.28, 8.93, 6.97, 6.7, 6.11, 5.37, 6.08, 3.8, -0.0, -1.54, -3.09, -3.48, -3.22, -0.7, -0.0, 0.67, 1.94, -0.0, -2.71, -3.06, -0.0, 3.98, 8.23, 9.13, 9.13, 8.43, 8.82, 8.55, 9.32, 9.32, 9.8, 9.55, 9.85, 9.64, 9.97, 9.76, 9.29, 7.98, 9.29, 9.7, 9.96, 7.59, 6.87, 7.59, 9.2, 9.33, 9.46, 9.46, 9.76, 9.16, 9.33, 9.39, 8.05, 8.05, 8.49, 8.49, 8.94, 8.49, 8.0, 1.26, -0.0, -0.0, -0.0, -1.54, -2.58, -4.0, -3.49, -2.97, -0.0, 1.75, 3.15, 4.83, 5.69, 6.9, 6.52, 6.52, 6.8, 4.24, 4.41, 4.41, 4.41, 4.92, 5.36, 5.36, 5.36, 5.36, 5.09, 4.4, 4.4, 7.6, 8.05, 8.49, 8.49, 8.49, 8.49, 8.24, 8.67, 8.94, 9.39, 9.83, 7.81, 6.95, 5.86, 2.21, -0.0, -1.84, -1.54, -1.84, -4.21, -4.74, -3.91, -0.96, -0.0, -0.0, 1.28, -0.0, -0.0, -0.0, 2.39, 7.81, 8.94, 8.94, 9.21, 9.64, 9.55, 9.2, 9.86, 9.63, 9.85, 10.08, 10.08, 9.97, 9.54, 9.29, 8.41, 7.52, 9.7, 9.55, 7.59, 6.2, 7.59, 8.24, 8.93, 9.2, 8.54, 8.34, 8.21, 8.21, 8.17, 7.81, 7.6, 8.05, 8.38, 8.0, 8.6, 8.94, 7.67, -0.0, -0.0, -0.0, -0.0, -0.0, -1.62, -1.62, -3.11, -1.54, -0.0, 1.67, 2.99, 4.83, 6.44, 5.37, 5.06, 5.93, 5.93, 4.3, 4.3, 4.43, 4.85, 4.92, 5.36, 5.36, 5.36, 5.36, 5.09, 4.0, 4.4, 6.8, 8.06, 8.24, 8.24, 7.89, 7.89, 7.89, 8.0, 9.33, 9.83, 8.91, 5.46, 3.8, -0.0, -1.11, -2.04, -1.04, -0.0, -0.0, -4.6, -8.37, -8.63, -6.17, -0.0, -0.0, 2.02, 1.76, -0.0, 2.02, 4.0, 6.32, 8.67, 8.94, 9.39, 9.83, 9.64, 9.75, 9.97, 9.97, 10.04, 10.04, 10.04, 9.97, 9.76, 8.85, 8.05, 7.94, 9.64, 8.58, 6.7, 6.2, 7.15, 6.98, 7.36, 7.06, 6.69, 6.95, 6.64, 7.68, 8.3, 7.46, 7.4, 8.33, 8.06, 6.98, 8.94, 5.31, 5.37, -0.0, -0.0, -0.0, -0.0, -0.0, -1.45, -1.45, -1.62, -1.54, -0.0, -0.0, 1.32, 4.14, 4.83, 2.82, 3.68, 5.37, 5.95, 4.3, 4.3, 4.43, 4.87, 4.92, 5.36, 5.36, 5.36, 5.36, 4.77, 4.0, 4.4, 6.4, 7.2, 8.24, 7.6, 7.2, 6.8, 7.2, 6.79, 6.32, 7.44, 7.27, -0.0, -0.0, -2.83, -3.35, -1.2, -0.0, 1.47, 1.07, -3.6, -7.81, -9.16, -8.3, -4.96, -0.0, 1.95, 4.0, -0.0, -0.0, 2.02, 4.88, 5.72, 8.05, 9.54, 9.83, 10.28, 10.28, 9.74, 9.11, 9.54, 10.2, 10.2, 10.2, 9.83, 8.49, 8.05, 8.94, 9.55, 6.71, 6.44, 5.0, 5.0, 5.2, 6.45, 6.97, 6.7, 6.48, 6.64, 7.67, 8.0, 8.0, 8.17, 8.0, 8.94, 8.94, 2.17, 1.26, 3.6, 2.54, 1.4, -0.0, -0.0, -0.0, -0.0, -0.0, -0.0, -0.0, -0.0, -0.0, 1.32, 2.99, 1.58, 1.18, 3.2, 5.37, 6.4, 4.3, 4.3, 4.43, 4.87, 4.87, 5.36, 5.36, 5.36, 5.36, 5.2, 4.24, 4.09, 6.79, 7.63, 8.4, 6.7, 6.44, 6.08, 6.44, 5.69, 4.83, 6.01, 6.32, -0.0, -2.28, -4.0, -4.0, -0.0, 2.69, 3.4, -0.0, -4.21, -6.91, -8.0, -8.91, -7.15, -2.17, 2.28, 4.2, 2.17, -0.0, -0.0, 2.6, 5.75, 7.9, 8.58, 8.73, 9.55, 9.83, 10.08, 9.75, 10.18, 10.2, 9.83, 9.83, 9.77, 8.41, 7.6, 8.49, 9.6, 7.9, 5.0, 3.98, 3.92, 4.32, 6.48, 8.12, 8.64, 9.38, 9.33, 9.34, 8.94, 9.39, 9.83, 8.8, -0.0, -0.0, -0.0, -0.0, 2.46, 4.71, 4.37, 1.58, -0.0, -0.0, -0.0, -0.0, -0.0, -0.0, -0.0, -0.0, -0.0, -0.0, -0.0, 1.18, 3.4, 5.93, 6.4, 4.3, 4.3, 4.43, 4.87, 4.87, 5.36, 5.36, 5.36, 5.36, 4.82, 4.0, 3.72, 6.4, 7.37, 7.81, 5.36, 5.36, 6.08, 5.93, 6.9, 6.08, 6.94, 8.06, -0.0, -8.05, -8.49, 8.49, 8.49, 8.05, -2.69, -5.63, -6.42, -7.27, -9.2, -7.89, -7.81, -6.7, -0.0, 4.96, 5.21, 5.21, 4.4, 4.4, 8.55, 8.23, 8.22, 7.9, 7.42, 7.27, 7.9, 8.0, 9.74, 9.83, 9.6, 8.91, 8.37, 7.63, 7.06, 8.49, 10.84, 9.3, 5.0, 2.19, 2.6, 4.54, 7.95, 10.56, 11.87, 11.18, 10.68, 9.64, 9.16, 9.75, 8.82, 7.27, -1.47, -0.0, -0.0, 1.16, 3.52, 4.68, 6.01, 4.37, 2.69, -0.0, -0.0, 1.1, 1.32, 1.23, 1.23, 1.23, -0.0, -0.0, -0.0, 2.26, 4.75, 5.93, 6.4, 4.3, 4.73, 4.87, 4.87, 4.87, 5.36, 5.36, 5.36, 5.29, 4.85, 4.15, 3.58, 5.37, 4.74, 6.4, 6.0, 5.72, 6.08, 6.08, 7.2, 8.06, 8.49, 7.63, -0.0, -8.05, 8.05, 5.69, 6.01, -8.05, -7.15, -7.51, -7.81, -8.48, -8.94, -7.6, -7.15, -8.49, -8.49, 5.69, 8.06, 9.11, 8.18, 7.81, 8.18, 8.55, 8.43, 7.26, 6.76, 7.36, 7.52, 8.58, 9.11, 9.29, 8.15, 6.79, 6.87, 5.93, 5.06, 8.06, 10.6, 5.0, 2.42, 2.6, 3.53, 5.64, 9.3, 11.76, 12.92, 11.4, 9.38, 7.96, 7.6, 9.1, 7.27, -0.0, -3.65, -2.97, -0.0, 1.45, 4.0, 5.2, 5.69, 6.01, 4.14, 2.54, 1.18, 1.1, 1.32, 1.14, 1.05, 0.96, -0.0, -0.0, -0.0, 2.26, 4.75, 5.93, 6.4, 4.3, 4.73, 4.87, 4.87, 4.87, 5.36, 5.36, 5.36, 5.29, 5.29, 4.66, 4.6, 4.12, 4.11, 6.08, 5.72, 5.36, 4.74, 5.06, 5.06, 6.8, 7.6, 8.05, 8.49, 8.05, 7.6, 7.6, 8.49, -8.49, -8.24, -8.49, -8.05, 0.0, -6.01, -8.49, -7.6, 7.6, 6.71, 8.05, 8.49, 8.33, 8.0, 8.0, 7.07, 7.6, 8.4, 7.51, 6.95, 7.27, 8.03, 7.64, 5.9, 3.49, -0.0, 8.94, 0.0, 2.54, 3.2, 8.0, 1.84, 1.84, 2.44, 3.29, 4.01, 5.78, 7.95, 10.61, 10.8, 9.83, 4.83, 4.47, 5.37, 7.27, 6.44, 3.25, -1.54, -1.62, -0.0, 1.47, 4.2, 5.46, 5.89, 4.83, 5.24, 3.77, 2.82, 1.84, 1.98, 2.16, 1.05, 0.88, 1.03, -0.0, -0.0, 1.18, 4.47, 5.59, 6.4, 4.3, 4.73, 4.73, 4.87, 4.87, 5.36, 5.36, 5.36, 5.31, 5.31, 5.09, 4.8, 5.05, 4.73, 6.44, 6.52, 5.93, 4.55, 3.88, 3.6, 5.09, 5.09, 5.09, 5.81, 7.15, 6.71, 4.74, 4.74, 0.0, -7.15, -5.06, -4.74, 0.0, -5.06, -6.4, -7.6, 8.05, 8.49, 7.37, 8.33, 8.0, 7.15, 6.79, 7.6, 8.67, 7.07, 3.8, 3.8, 6.01, 5.72, 1.92, -0.75, -2.35, -0.89, -0.0, -0.0, -0.0, -0.0, -0.0, -0.0, 0.77, 2.31, 3.96, 4.65, 4.65, 3.34, 1.97, 1.0, 1.22, 2.4, 5.6, 6.4, 5.29, 4.8, 4.6, -0.0, -0.0, -0.0, 1.93, 4.6, 4.83, 6.01, 6.01, 5.3, 4.22, 2.9, 2.35, 1.72, 2.29, 1.7, 2.16, 2.49, 1.32, 1.18, 2.66, 3.68, 5.06, 6.13, 4.73, 4.73, 4.73, 4.87, 4.88, 5.36, 5.36, 5.36, 5.31, 5.31, 5.16, 5.34, 5.05, 5.6, 6.25, 6.4, 6.9, 7.48, 7.12, 6.26, 5.81, 5.36, 5.36, 8.05, 7.15, 6.71, 5.81, 2.24, 4.47, 5.2, 5.94, 7.15, 7.6, 7.15, 5.06, 5.06, 7.6, 8.06, 7.6, 8.0, 7.44, 6.98, 6.28, 7.89, 8.24, 4.46, -0.0, 1.84, 1.84, -0.0, -3.42, -4.98, -4.54, -2.87, -0.83, 0.8, 2.35, 1.58, -0.0, -0.0, 0.83, 2.44, 3.91, 3.91, 1.51, -0.0, -0.0, -0.0, 0.89, 3.32, 5.09, 5.49, 9.39, 7.9, -0.0, -0.0, -0.0, 1.75, 4.0, 4.2, 4.4, 5.06, 6.58, 5.59, 4.94, 3.6, 2.82, 2.35, 2.2, 2.88, 2.99, 3.49, 2.16, 2.32, 2.49, 3.45, 4.74, 4.74, 4.73, 4.73, 4.77, 4.88, 4.88, 5.36, 5.36, 5.36, 5.36, 5.32, 5.64, 5.64, 5.44, 5.6, 6.13, 6.72, 7.37, 8.02, 8.05, 7.6, 7.13, 6.71, 6.71, 6.71, 6.71, 7.15, 7.13, 6.23, 5.36, 4.47, 6.14, 7.15, 7.6, 7.15, 7.37, 7.6, 7.81, 7.6, 6.01, 7.15, 8.3, 7.47, 6.64, 7.37, 6.01, -0.0, -0.0, -0.0, -0.0, -1.76, -5.45, -7.42, -8.85, -7.51, -4.24, -0.0, 3.25, 3.41, 1.56, 1.01, 2.08, 2.6, 3.39, 1.58, -0.0, -2.33, -2.35, -0.92, 1.9, 4.98, 6.9, 7.63, 6.77, 7.9, 2.49, 1.93, 3.49, 4.37, 4.46, 5.31, 5.36, 6.95, 7.68, 8.43, 5.82, 4.12, 3.91, 2.66, 2.72, 3.26, 3.38, 3.35, 3.49, 3.49, 2.99, 3.22, 3.22, 4.02, 4.73, 4.77, 4.77, 4.88, 4.88, 5.36, 5.36, 5.36, 5.36, 5.77, 5.64, 5.64, 5.44, 5.94, 5.72, 6.23, 6.9, 7.06, 7.58, 7.6, 7.15, 7.15, 6.71, 6.71, 7.15, 7.6, 7.6, 7.6, 7.15, 6.26, 5.67, 6.61, 7.6, 7.15, 7.6, 7.6, 7.37, 6.79, 7.44, 7.6, 7.89, 6.71, 7.6, 8.06, -0.0, -0.0, -0.0, -0.0, -0.0, -2.97, -6.95, -9.2, -9.54, -8.94, -8.94, -7.6, -0.0, 1.91, 5.6, 4.18, 1.18, 1.39, 1.23, -0.0, -0.0, -1.76, -3.16, -1.76, 2.82, 6.2, 7.93, 6.84, 5.95, 5.92, 4.6, 5.06, 4.83, 4.96, 5.44, 6.01, 6.32, 7.33, 8.05, 8.3, 7.33, 5.72, 4.5, 3.09, 2.66, 3.26, 4.22, 3.43, 3.63, 3.49, 3.79, 3.22, 2.99, 3.22, 4.6, 4.77, 4.77, 4.88, 4.88, 5.36, 5.36, 5.36, 5.81, 5.77, 5.77, 5.64, 5.67, 5.94, 5.94, 5.99, 5.99, 6.47, 6.6, 6.68, 6.71, 6.71, 6.71, 6.71, 6.71, 7.15, 7.6, 7.6, 7.15, 6.71, 6.6, 5.94, 7.45, 8.05, 8.05, 8.67, 7.81, 6.32, 8.8, 7.37, 6.71, 8.05, 7.37, 7.2, -0.0, -0.0, -0.0, -0.0, -0.0, -3.8, -6.32, -6.01, 7.6, 6.71, 6.71, 7.15, -8.05, -0.0, 7.56, 7.9, 3.11, -0.0, -0.0, 2.02, 2.02, -0.0, -2.49, -0.0, 5.46, 5.9, 4.66, 5.98, 6.24, 6.24, 6.69, 7.27, 6.95, 6.01, 6.32, 7.15, 6.79, 7.58, 8.0, 8.06, 8.33, 6.64, 4.0, 2.83, 2.66, 3.09, 4.46, 5.0, 3.72, 3.63, 3.79, 3.35, 2.99, 2.99, 4.6, 4.77, 4.77, 4.88, 4.88, 4.88, 5.36, 5.36, 5.81, 5.81, 5.78, 5.78, 5.67, 6.11, 5.94, 5.99, 5.99, 5.99, 6.16, 6.23, 6.23, 6.71, 6.71, 6.71, 6.71, 7.15, 7.15, 7.15, 7.6, 7.15, 6.68, 6.47, 5.99, 7.89, 8.05, 7.63, 6.32, 5.36, 7.6, 6.71, 6.71, 6.58, 7.6, 4.46, -0.0, -0.0, -0.0, -0.0, -0.0, 3.6, -0.0, 7.6, 7.6, 6.79, 6.36, 6.0, 7.15, 6.8, 8.94, 9.13, 6.64, 3.65, 4.0, 6.32, 5.69, 3.8, 3.4, 4.0, 2.97, 2.17, 3.32, 6.17, 8.03, 8.18, 8.93, 8.24, 8.15, 7.74, 7.06, 7.06, 7.68, 8.06, 7.44, 8.22, 7.89, 7.6, 4.6, 2.69, 2.21, 2.82, 3.79, 4.74, 3.72, 4.11, 4.12, 3.48, 3.07, 3.07, 4.6, 4.77, 4.77, 4.77, 4.88, 4.88, 5.36, 5.36, 5.36, 5.81, 5.78, 5.78, 5.67, 6.11, 6.11, 6.14, 5.99, 6.14, 6.16, 6.23, 6.68, 6.68, 6.68, 6.71, 7.15, 7.15, 7.58, 7.58, 8.03, 8.03, 7.51, 6.94, 6.47, 8.06, 6.71, 7.21, 6.7, 7.63, 6.71, 7.15, 7.37, 6.36, 6.8, 3.0, 1.95, -0.0, -0.0, 2.69, 4.46, 5.37, 6.32, 6.32, 6.7, 7.2, 6.7, 6.7, 7.37, 8.05, 8.33, 8.43, 7.27, 6.95, 7.15, 7.6, 7.81, 6.51, 7.6, -0.0, -0.0, -0.0, 8.18, 8.49, 9.83, 10.58, 11.18, 10.48, 8.53, 8.31, 8.68, 8.32, 8.03, 8.32, 7.92, 7.67, 8.0, 6.63, 4.14, 2.54, 2.82, 3.72, 5.38, 5.38, 4.43, 4.43, 4.84, 4.46, 3.48, 3.48, 4.6, 4.77, 4.77, 4.77, 4.88, 4.88, 5.36, 5.36, 5.36, 5.81, 5.81, 5.78, 5.78, 5.67, 6.11, 6.14, 6.14, 6.14, 6.14, 6.23, 6.6, 7.06, 6.6, 6.68, 7.15, 7.6, 7.95, 7.95, 7.95, 8.3, 7.87, 7.84, 7.21, 6.3, 5.51, 6.58, 5.51, 5.21, 6.4, 6.0, 6.4, 7.15, 6.71, 3.2, 2.4, 2.69, 2.83, 4.96, 4.71, 6.7, 7.2, 7.2, 7.2, 7.2, 6.44, 6.44, 6.79, 7.67, 7.33, 6.95, 8.03, 7.68, 8.05, 7.89, 8.33, 7.15, 6.79, 5.37, 8.94, 8.4, 10.52, 10.65, 11.98, 12.52, 12.83, 11.12, 9.5, 10.18, 9.84, 8.88, 8.43, 9.2, 8.95, 8.72, 7.44, 4.96, 4.0, 2.54, 3.91, 4.47, 4.74, 5.06, 4.75, 5.21, 5.6, 5.2, 4.09, 4.09, 4.6, 4.77, 4.77, 4.77, 4.88, 4.88, 4.92, 5.36, 5.36, 5.81, 5.81, 5.78, 5.78, 5.67, 5.67, 7.5, 5.24, 5.24, 5.78, 6.23, 7.06, 6.9, 6.23, 7.63, 7.52, 8.38, 5.09, 6.99, 7.4, 6.3, 6.6, 6.6, 6.6, 6.51, 6.0, 5.72, 4.93, 4.71, 4.81, 5.36, 5.81, 6.51, 7.15, 7.21, 5.69, 4.71, 4.96, 6.32, 7.07, 7.6, 7.6, 7.2, 7.2, 6.44, 5.1, 6.01, 6.01, 6.64, 8.03, 8.03, 8.8, 8.4, 8.91, 7.89, 7.6, 7.6, 3.2, 2.26, 8.05, 6.95, 10.27, 11.93, 14.3, 14.72, 14.26, 13.31, 12.52, 11.62, 10.25, 9.72, 9.79, 9.79, 9.83, 9.21, 8.63, 6.64, 5.59, 3.6, 5.03, 5.06, 5.06, 5.15, 5.46, 5.34, 5.6, 5.2, 4.19, 4.19, 4.6, 4.6, 4.77, 4.77, 4.88, 4.88, 4.89, 5.36, 5.36, 5.36, 5.81, 5.78, 5.78, 5.78, 5.67, 6.11, 5.67, 5.2, 7.01, 7.5, 7.31, 5.31, 4.93, 5.95, 6.32, 6.0, 5.51, 3.72, 3.88, 4.27, 4.0, 4.55, 5.08, 5.47, 5.6, 5.6, 6.0, 5.75, 6.1, 6.3, 7.04, 7.15, 7.12, 7.21, 6.4, 8.4, 7.44, 7.44, 8.0, 7.6, 7.6, 7.2, 7.2, 5.69, 4.56, 4.14, 6.64, 6.01, 7.33, 8.82, 8.91, 8.72, 8.77, 8.49, 7.15, 3.2, -0.0, 2.06, 7.44, 9.39, 10.73, 12.48, 14.23, 16.07, 15.2, 13.59, 11.12, 9.53, 8.91, 8.8, 9.35, 9.35, 8.9, 8.87, 7.44, 5.44, 3.35, 3.17, 4.22, 4.47, 4.74, 6.0, 5.75, 5.59, 5.09, 5.2, 4.19, 4.19, 4.6, 4.6, 4.77, 4.77, 4.88, 4.89, 4.89, 5.36, 5.36, 5.36, 5.81, 5.81, 5.78, 5.78, 5.67, 6.11, 6.11, 5.51, 5.51, 7.4, 7.31, 4.6, 3.88, 4.07, 5.21, 5.08, 6.28, 5.75, 5.94, 5.81, 5.4, 4.6, 4.46, 4.27, 4.8, 4.93, 5.47, 6.23, 6.94, 7.51, 8.05, 8.03, 7.97, 7.37, 6.23, 8.3, 7.6, 8.67, 8.67, 8.24, 7.81, 7.81, 6.7, 4.83, 3.15, 4.14, 5.59, 6.32, 7.68, 8.72, 8.77, 8.77, 8.94, 8.49, 6.8, -0.0, -0.0, 1.84, 4.83, 6.64, 8.23, 10.4, 12.14, 13.86, 14.11, 12.7, 8.44, 8.01, 7.18, 7.06, 7.89, 8.63, 8.94, 6.99, 5.44, 3.35, 2.33, 1.95, 2.99, 4.16, 5.24, 5.6, 5.59, 5.31, 5.29, 4.6, 3.35, 3.35, 4.6, 4.6, 4.77, 4.77, 4.88, 4.89, 4.89, 4.92, 5.36, 5.36, 5.36, 5.81, 5.78, 5.78, 5.7, 6.14, 6.11, 5.57, 5.81, 6.72, 7.33, 6.58, 5.44, 5.2, 5.47, 6.64, 7.28, 7.45, 7.55, 7.15, 6.71, 6.2, 5.94, 5.2, 5.2, 5.05, 5.6, 5.72, 6.47, 7.06, 7.58, 7.6, 7.58, 7.06, 6.47, 5.94, 9.21, 8.67, 8.94, 8.49, 8.05, 7.81, 6.01, 3.8, 3.8, 4.0, 4.71, 5.63, 6.95, 8.0, 8.05, 8.05, 8.05, 7.6, 3.2, -0.0, -0.0, -0.0, 1.84, 1.93, 3.65, 7.15, 8.3, 8.19, 6.01, 6.17, 6.94, 7.11, 6.36, 6.36, 7.02, 7.42, 8.94, 5.59, 4.0, 3.52, 3.52, 3.8, 4.46, 4.65, 5.82, 5.75, 5.59, 5.31, 4.98, 3.48, 3.63, 3.63, 4.6, 4.6, 4.6, 4.77, 4.88, 4.89, 4.89, 4.92, 5.36, 5.36, 5.36, 5.81, 5.78, 5.78, 5.78, 6.14, 6.14, 5.99, 6.23, 6.72, 7.37, 7.76, 7.92, 7.76, 7.33, 7.76, 7.76, 7.92, 8.02, 8.05, 7.6, 7.15, 6.67, 6.66, 6.07, 5.75, 5.75, 5.86, 6.36, 6.58, 7.12, 7.15, 7.15, 7.12, 6.14, 5.67, 8.77, 8.49, 8.05, 7.6, 8.05, 7.07, 4.71, 3.8, 3.8, 3.8, 3.6, 4.66, 5.46, 5.03, 6.4, 6.71, 5.81, 3.47, 1.4, -0.0, -0.0, -0.0, -0.0, -0.0, -0.0, 2.69, 6.64, 5.81, 3.79, 0.73, 2.9, 4.8, 5.4, 5.6, 4.87, 4.46, 8.49, 5.36, 3.49, 4.83, 4.83, 5.59, 6.98, 7.2, 6.4, 6.28, 5.09, 5.51, 4.98, 3.07, 2.79, 2.79, 4.6, 4.6, 4.6, 4.77, 4.88, 4.89, 4.89, 4.92, 5.36, 5.36, 5.36, 5.81, 5.81, 5.78, 5.78, 6.14, 6.14, 5.99, 6.42, 6.47, 6.9, 7.37, 7.81, 7.81, 7.81, 7.94, 7.94, 7.94, 7.94, 8.02, 8.02, 7.57, 7.13, 7.12, 6.67, 6.55, 6.55, 6.55, 6.55, 7.01, 7.12, 7.12, 7.15, 6.71, 6.26, 5.81, 8.49, 8.49, 8.49, 8.49, 8.67, 7.6, 6.01, 4.71, 4.71, 4.71, 4.22, 3.6, 4.2, 4.96, 3.0, 4.43, 3.2, 1.84, -0.0, -0.0, -0.0, 1.69, 1.84, -0.0, 8.05, 7.6, 9.36, 10.25, 8.79, 5.94, 3.72, 2.26, 3.99, 3.46, 2.7, 3.33, 6.94, 7.2, 3.8, 4.96, 6.79, 7.28, 7.89, 7.6, 6.6, 5.43, 4.66, 4.98, 4.11, 3.79, 3.48, 3.48, 4.6, 4.6, 4.6, 4.77, 4.77, 4.88, 4.89, 4.92, 4.92, 5.36, 5.36, 5.36, 5.81, 5.78, 5.78, 6.14, 6.14, 5.99, 6.47, 6.47, 6.9, 6.72, 7.21, 7.37, 7.84, 7.84, 7.95, 7.95, 7.95, 7.95, 7.95, 7.58, 7.57, 7.57, 7.12, 7.04, 7.04, 7.01, 7.01, 7.04, 7.12, 7.12, 7.15, 7.15, 6.71, 6.71, 7.15, 8.05, 8.94, 9.35, 8.77, 9.7, 7.2, 6.7, 6.01, 4.71, 5.69, 3.2, 3.6, 5.1, 6.32, 7.2, 5.69, -0.0, -0.0, -0.0, -0.0, 1.22, 1.62, -0.0, 2.4, 6.28, 10.73, 11.66, 12.04, 10.8, 7.73, 6.71, 2.82, 1.49, 2.06, 3.33, 5.58, 7.15, -0.0, 5.37, 6.32, 7.2, 6.44, 5.37, 4.75, 4.11, 4.12, 4.54, 4.54, 4.19, 3.79, 3.79, 4.6, 4.6, 4.6, 4.77, 4.77, 4.88, 4.89, 4.92, 4.92, 5.36, 5.36, 5.36, 5.81, 5.78, 6.23, 6.23, 6.14, 6.16, 6.47, 6.47, 6.47, 6.72, 6.72, 7.21, 7.37, 7.37, 7.84, 7.84, 7.95, 7.95, 7.95, 7.95, 7.5, 7.57, 7.57, 7.57, 7.04, 7.04, 7.04, 7.04, 7.12, 7.12, 7.12, 7.15, 7.15, 7.15, 7.6, 8.05, 8.94, 9.39, 8.94, 8.05, 8.94, 7.81, 7.07, 7.07, 5.69, 6.8, 5.37, 5.69, 7.6, 8.05, 6.44, 3.4, -0.0, -0.0, -0.0, -0.0, -0.0, -0.0, 3.4, 6.32, 8.89, 10.6, 10.68, 10.87, 10.73, 8.25, 7.06, 1.07, 2.18, 3.0, 2.8, -4.43, -2.12, 2.26, 5.06, 6.08, 4.56, 3.4, 4.14, 4.01, 4.46, 4.84, 4.84, 4.6, 3.79, 3.79, 4.6, 4.6, 4.6, 4.77, 4.77, 4.88, 4.89, 4.89, 4.92, 5.36, 5.36, 5.36, 5.81, 5.81, 6.23, 6.23, 6.16, 6.16, 6.47, 6.47, 6.47, 6.9, 6.72, 6.72, 7.21, 7.37, 7.37, 7.37, 7.81, 7.95, 7.95, 7.5, 7.5, 7.5, 7.5, 7.5, 7.5, 7.5, 7.04, 7.12, 7.12, 7.12, 7.15, 7.15, 7.6, 7.6, 8.05, 8.05, 8.49, 8.94, 8.94, 8.05, 7.6, 6.26, 6.71, 7.21, 7.63, 7.21, 3.0, -0.0, 8.49, 7.89, 8.67, 6.32, 2.28, -0.0, -0.0, 4.2, 6.32, 8.49, 7.6, 4.83, 7.6, 8.94, 8.72, 8.67, 8.88, 8.25, 7.6, 5.03, 2.09, 1.23, -5.36, -4.84, -3.47, -0.0, 4.74, 5.06, 3.2, 3.4, 5.06, 5.72, 5.24, 5.6, 5.2, 4.8, 4.54, 4.54, 4.6, 4.6, 4.6, 4.77, 4.77, 4.77, 4.88, 4.89, 4.92, 5.36, 5.36, 5.36, 5.81, 5.81, 5.78, 6.23, 6.16, 6.6, 6.6, 6.47, 6.47, 6.47, 6.9, 6.9, 6.9, 7.37, 7.37, 7.37, 7.37, 7.37, 7.5, 7.5, 7.5, 7.5, 7.5, 7.5, 7.5, 7.5, 7.04, 7.12, 7.12, 6.68, 6.71, 7.15, 7.6, 7.6, 8.05, 8.49, 8.91, 8.91, 8.46, 8.01, 7.57, 6.66, 5.77, 6.26, 7.6, 7.6, 5.06, -0.0, 7.15, 8.05, 7.6, 8.24, 4.0, 2.02, 2.97, 8.94, 8.0, 6.32, 6.32, 6.79, 6.63, 7.28, 8.94, 8.94, 9.39, 7.56, 7.98, 7.5, 3.68, 0.87, -2.68, -3.48, -2.4, -0.0, 2.4, 2.12, 3.97, 5.37, 6.32, 6.94, 6.79, 6.02, 5.59, 5.51, 5.2, 5.2, 4.6, 4.6, 4.6, 4.77, 4.77, 4.77, 4.88, 4.89, 4.92, 4.92, 5.36, 5.36, 5.81, 5.81, 5.78, 6.23, 6.23, 6.6, 6.6, 6.47, 6.47, 6.47, 6.9, 6.9, 6.9, 6.9, 6.9, 6.94, 7.37, 7.37, 7.37, 7.5, 7.5, 7.5, 7.5, 7.5, 7.5, 7.04, 7.04, 7.12, 6.68, 6.67, 6.23, 7.6, 8.05, 6.67, 7.6, 7.5, 7.33, 8.82, 8.38, 7.48, 7.01, 6.11, 5.2, 4.11, 6.94, 7.6, 6.0, 5.06, 7.15, 6.79, 7.37, 8.67, 4.2, 3.65, 5.29, 8.4, 3.8, 2.06, 6.01, 7.89, 8.17, 6.87, 5.63, 8.12, 9.2, 7.89, 6.71, 7.15, 6.64, 3.7, 3.09, 1.86, 2.48, 1.41, 1.41, 4.11, 5.94, 5.94, 6.71, 6.71, 6.26, 6.2, 6.2, 5.75, 5.94, 5.94, 4.6, 4.6, 4.6, 4.77, 4.77, 4.77, 4.88, 4.89, 4.92, 5.36, 5.36, 5.36, 5.36, 5.81, 5.81, 6.23, 6.23, 6.6, 6.6, 6.6, 6.47, 6.47, 6.47, 6.47, 6.9, 6.9, 6.9, 6.9, 6.94, 7.37, 7.37, 7.37, 7.5, 7.5, 7.5, 7.5, 7.5, 7.04, 7.04, 7.04, 6.68, 6.67, 6.23, 5.78, 6.26, 8.49, 8.49, 6.14, 5.51, 5.09, 5.09, 5.09, 5.99, 5.09, 4.6, 4.11, 4.11, 4.24, 6.71, 6.71, 6.71, 6.94, 8.05, 7.07, 4.96, 4.96, 2.28, 2.49, -0.0, 0.0, 1.98, 6.71, 8.43, 9.83, 8.82, 7.97, 9.04, 9.6, 9.64, 9.83, 9.83, 7.58, 6.69, 5.81, 4.66, 2.86, 2.84, 3.6, 4.47, 4.92, 4.92, 5.81, 5.81, 6.71, 6.26, 6.26, 6.17, 6.17, 4.6, 4.6, 4.6, 4.77, 4.77, 4.77, 4.88, 4.89, 5.36, 5.36, 5.36, 5.36, 5.36, 5.81, 5.81, 6.23, 6.23, 6.23, 6.6, 6.6, 6.6, 6.47, 6.47, 6.47, 6.47, 6.9, 6.9, 6.9, 7.04, 6.94, 7.37, 7.37, 7.37, 7.37, 7.5, 7.5, 7.04, 7.04, 7.04, 6.6, 6.6, 6.14, 6.14, 5.67, 5.67, 7.74, 8.43, 6.67, 5.78, 5.32, 6.21, 6.65, 6.45, 5.34, 4.8, 4.4, 4.0, 4.0, 3.95, 6.26, 6.71, 7.6, 8.06, 7.07, 8.06, 7.2, -0.0, -0.0, -0.0, 7.15, 4.43, 5.37, 6.63, 10.0, 12.27, 11.28, 8.79, 7.76, 8.17, 10.16, 12.5, 12.52, 8.05, 7.52, 7.43, 5.61, 4.19, 3.74, 4.38, 5.36, 4.66, 4.4, 5.2, 6.17, 6.26, 6.26, 6.26, 6.26, 4.6, 4.6, 4.6, 4.77, 4.77, 4.77, 4.88, 5.33, 5.36, 5.36, 5.36, 5.36, 5.36, 5.81, 5.81, 5.79, 6.23, 6.23, 6.6, 6.6, 6.6, 6.6, 6.47, 6.47, 6.47, 6.47, 6.47, 6.47, 8.24, 6.58, 6.9, 6.9, 6.9, 6.9, 6.9, 6.9, 6.47, 6.6, 6.6, 6.6, 6.14, 6.14, 6.14, 6.14, 5.99, 6.72, 7.81, 8.46, 8.45, 8.49, 8.05, 8.05, 7.6, 7.15, 6.71, 5.4, 4.57, 4.15, 4.15, 4.38, 6.71, 7.6, 7.07, 7.81, 8.49, 8.05, 7.15, 7.6, 8.05, 8.94, 8.49, 4.0, 4.2, 9.55, 12.14, 13.31, 10.04, 5.31, 6.18, 7.98, 11.54, 12.52, 11.54, 8.67, 9.57, 8.67, 5.61, 4.19, 5.51, 5.31, 5.81, 4.46, 4.09, 5.4, 6.17, 6.2, 6.26, 6.26, 4.6, 4.6, 4.6, 4.77, 4.77, 4.77, 5.32, 5.32, 5.36, 5.36, 5.36, 5.36, 5.36, 5.36, 5.81, 5.78, 6.23, 6.23, 6.23, 6.6, 6.6, 6.6, 6.6, 6.47, 6.47, 6.47, 6.47, 6.47, 6.47, 8.24, 6.14, 5.99, 6.04, 6.04, 6.04, 6.04, 6.04, 5.99, 5.99, 5.99, 6.14, 6.14, 6.14, 6.14, 6.42, 6.9, 7.37, 8.46, 8.46, 8.9, 8.49, 8.49, 8.05, 7.6, 7.15, 6.71, 6.26, 5.29, 4.85, 4.38, 4.92, 7.21, 8.06, 7.37, 8.05, 7.6, 7.15, 6.0, 5.69, 8.48, 8.94, 6.32, 8.49, 9.11, 12.52, 14.67, 12.04, 10.28, 9.64, 10.22, 11.18, 12.05, 12.89, 13.25, 11.05, 10.16, 7.43, 5.14, 5.75, 6.2, 6.26, 5.2, 3.22, 4.29, 4.98, 6.61, 6.17, 6.17, 4.6, 4.6, 4.6, 4.77, 5.2, 5.2, 5.32, 5.32, 5.36, 5.36, 5.36, 5.36, 5.36, 5.36, 5.81, 5.78, 5.78, 6.23, 6.23, 6.68, 6.6, 6.6, 6.6, 6.47, 6.47, 6.47, 6.47, 6.47, 6.9, 6.9, 7.04, 6.58, 6.6, 6.6, 6.6, 6.58, 6.14, 6.14, 6.14, 6.14, 6.14, 6.14, 6.14, 6.58, 6.58, 6.9, 7.48, 7.92, 7.94, 8.46, 8.46, 8.01, 8.01, 7.57, 7.12, 6.67, 6.23, 5.78, 5.31, 4.92, 7.6, 7.6, 7.21, 7.63, 6.79, 7.15, 7.15, 6.71, 7.2, 8.06, 8.49, 8.4, 9.39, 7.28, 11.37, 14.29, 14.57, 13.01, 12.14, 12.86, 13.41, 12.96, 13.41, 13.41, 13.41, 9.37, 7.58, 5.79, 6.26, 6.26, 6.21, 5.2, 3.22, 3.22, 3.79, 5.51, 5.73, 5.73, 4.6, 4.6, 4.6, 4.77, 5.2, 5.32, 5.32, 5.32, 5.36, 5.36, 5.36, 5.36, 5.36, 5.36, 5.36, 5.78, 5.78, 6.23, 6.23, 6.23, 6.6, 6.6, 6.6, 6.6, 6.47, 6.47, 6.47, 6.47, 6.47, 6.9, 6.9, 7.04, 7.04, 7.04, 7.04, 7.04, 7.04, 7.01, 6.58, 6.58, 6.58, 6.58, 6.58, 6.58, 7.01, 7.04, 7.48, 7.48, 7.92, 7.92, 7.92, 7.92, 7.48, 7.57, 7.12, 6.67, 6.23, 5.78, 5.33, 4.92, 4.92, 8.05, 7.21, 7.63, 7.63, 7.63, 6.79, 7.6, 7.6, 8.05, 7.6, 8.94, 9.39, 9.49, 10.95, 13.32, 14.57, 14.92, 15.1, 15.13, 13.84, 12.94, 11.53, 10.63, 10.7, 7.6, 6.71, 5.81, 6.21, 6.51, 6.07, 4.8, 2.4, 2.4, 2.53, 3.07, 4.98, 4.98, 4.6, 4.6, 4.6, 4.77, 5.2, 5.32, 5.32, 5.32, 5.36, 5.36, 5.36, 5.36, 5.36, 5.36, 5.36, 5.36, 5.78, 5.79, 6.23, 6.23, 6.6, 6.6, 6.6, 6.6, 6.6, 6.47, 6.47, 6.47, 6.47, 6.9, 6.9, 6.9, 7.04, 7.04, 7.04, 7.04, 7.04, 7.04, 7.04, 7.01, 6.58, 6.58, 6.67, 6.67, 7.12, 7.04, 7.48, 7.48, 7.48, 7.92, 7.92, 7.48, 7.48, 7.01, 7.01, 6.58, 6.23, 5.78, 5.33, 4.87, 4.47, 4.92, 8.05, 7.15, 7.6, 8.24, 7.21, 8.05, 8.05, 7.6, 8.49, 7.6, 9.83, 11.02, 12.07, 12.03, 12.07, 12.3, 13.96, 14.93, 14.23, 11.18, 8.49, 7.11, 5.78, 5.77, 4.87, 5.16, 5.75, 6.28, 5.64, 4.8, 3.79, 2.4, 1.66, 2.41, 4.4, 4.4, 4.6, 4.6, 4.77, 5.2, 5.2, 5.32, 5.32, 5.32, 5.36, 5.36, 5.36, 5.36, 5.36, 5.36, 5.36, 5.36, 5.78, 5.78, 5.79, 6.23, 6.23, 6.6, 6.6, 6.6, 6.6, 6.47, 6.47, 6.47, 6.47, 6.47, 6.47, 6.9, 6.9, 6.9, 7.04, 7.04, 7.04, 7.04, 7.04, 7.04, 6.58, 6.58, 6.67, 8.05, 6.67, 7.04, 7.04, 7.33, 7.33, 7.33, 7.33, 7.28, 6.85, 7.01, 6.58, 6.55, 6.11, 5.67, 4.88, 4.87, 4.41, 4.38, 8.05, 7.15, 7.6, 8.49, 7.15, 7.6, 7.6, 7.6, 7.21, 8.05, 7.81, 9.86, 11.5, 11.46, 10.65, 10.96, 11.96, 13.39, 12.96, 10.7, 8.46, 7.15, 4.47, 3.98, 3.97, 4.0, 5.2, 4.93, 4.43, 5.36, 4.8, 2.73, 2.0, 3.2, 1.98, 4.47, 4.6, 4.6, 4.77, 5.2, 5.2, 5.32, 5.32, 5.36, 5.36, 5.36, 5.36, 5.36, 5.36, 5.36, 5.36, 5.81, 5.78, 5.78, 5.78, 6.23, 6.23, 6.16, 6.6, 6.6, 6.6, 6.6, 6.47, 6.47, 6.47, 6.47, 6.47, 6.47, 6.47, 6.47, 6.9, 7.04, 7.04, 7.04, 7.04, 6.58, 6.58, 6.58, 6.11, 7.97, 6.71, 7.12, 6.9, 6.85, 6.85, 6.85, 6.85, 6.85, 6.42, 6.42, 5.94, 5.51, 5.67, 5.2, 4.73, 4.73, 4.24, 4.38, 7.6, 7.15, 7.6, 8.49, 8.05, 7.15, 7.15, 7.21, 7.6, 8.49, 6.32, 8.0, 11.04, 11.26, 10.18, 10.41, 10.32, 11.18, 9.72, 8.49, 8.49, 8.05, 8.05, 7.6, 4.92, 4.41, 4.3, 4.43, 5.81, 5.75, 4.92, 4.34, 4.02, 1.4, 0.59, 1.98, 4.77, 4.77, 4.77, 5.2, 5.2, 5.32, 5.32, 5.36, 5.36, 5.36, 5.36, 5.36, 5.36, 5.36, 5.36, 5.78, 5.78, 5.78, 5.78, 5.79, 6.23, 6.16, 6.16, 6.6, 6.6, 6.6, 6.6, 6.47, 6.47, 6.47, 6.47, 6.47, 6.47, 6.47, 6.47, 6.6, 7.04, 7.04, 7.01, 6.58, 6.58, 6.58, 6.11, 5.67, 7.97, 7.12, 6.9, 5.94, 5.94, 5.94, 5.94, 5.94, 5.51, 5.51, 5.09, 5.02, 5.02, 4.73, 4.73, 4.66, 4.24, 4.15, 4.77, 8.05, 7.6, 7.81, 6.79, 6.94, 7.21, 7.6, 8.05, 6.8, 8.94, 9.39, 9.7, 9.62, 9.27, 8.6, 8.87, 8.85, 8.82, 7.15, 8.05, 8.9, 9.35, 10.23, 10.68, 8.05, 4.92, 6.26, 5.75, 5.75, 4.87, 4.85, 3.49, 1.94, 0.61, 0.59, 4.77, 4.77, 5.2, 5.2, 5.2, 5.32, 5.32, 5.36, 5.36, 5.36, 5.36, 5.36, 5.36, 5.36, 5.36, 5.78, 5.78, 5.78, 5.78, 5.78, 6.23, 6.16, 6.16, 6.6, 6.6, 6.6, 6.6, 6.6, 6.6, 6.47, 6.47, 6.47, 6.47, 6.47, 6.47, 6.47, 6.6, 6.58, 6.58, 6.58, 6.58, 6.58, 5.94, 5.94, 6.42, 8.24, 6.58, 5.94, 5.44, 5.44, 5.44, 5.44, 5.02, 5.02, 5.02, 5.02, 4.93, 5.16, 4.66, 4.66, 4.15, 4.15, 6.79, 7.6, 7.6, 7.6, 6.94, 7.81, 7.15, 8.05, 7.63, 6.8, 7.6, 3.8, 8.94, 7.9, 8.65, 8.94, 8.63, 6.94, 7.12, 8.48, 9.92, 9.62, 10.49, 10.14, 9.34, 8.49, 7.15, 7.15, 5.81, 5.36, 4.87, 5.43, 4.65, 3.0, 1.52, 1.52, 4.77, 4.77, 5.2, 5.2, 5.32, 5.32, 5.32, 5.36, 5.36, 5.36, 5.36, 5.36, 5.36, 5.36, 5.78, 5.78, 5.78, 5.78, 5.78, 5.78, 5.78, 6.16, 6.16, 6.16, 6.6, 6.6, 6.6, 6.6, 6.6, 6.6, 6.6, 6.6, 6.6, 6.42, 6.42, 6.42, 6.42, 6.42, 6.58, 6.58, 6.42, 6.42, 5.94, 5.99, 6.23, 7.33, 7.48, 7.01, 6.98, 6.55, 6.55, 6.11, 6.07, 6.07, 6.07, 5.64, 5.59, 5.16, 5.09, 5.09, 4.57, 4.15, 4.57, 8.05, 7.6, 8.05, 8.05, 7.6, 6.79, 6.32, 5.69, 7.6, 6.01, 2.4, 2.83, 8.94, 9.33, 11.09, 11.34, 10.87, 10.35, 10.65, 11.99, 12.72, 12.49, 10.6, 8.05, 7.6, 7.6, 6.71, 5.81, 5.36, 4.38, 2.84, 3.11, 1.45, 1.45, 1.45, 4.77, 4.77, 5.2, 5.2, 5.32, 5.32, 5.32, 5.36, 5.36, 5.36, 5.36, 5.36, 5.36, 5.36, 5.78, 5.78, 5.78, 5.78, 5.78, 5.7, 5.7, 6.14, 6.16, 6.16, 6.16, 6.6, 6.6, 6.6, 6.16, 6.16, 6.6, 6.58, 6.58, 6.58, 6.42, 6.42, 6.42, 6.42, 6.42, 6.42, 6.42, 6.42, 6.42, 6.42, 6.42, 6.9, 7.48, 7.48, 7.45, 7.45, 7.45, 7.11, 7.11, 6.66, 6.55, 6.07, 5.64, 5.59, 5.59, 5.09, 4.66, 4.24, 4.57, 7.63, 7.6, 8.05, 7.81, 7.63, 5.06, 4.22, 6.8, 7.6, 5.37, 1.95, 1.32, 3.8, 9.74, 11.93, 13.23, 12.39, 12.51, 13.54, 14.53, 14.62, 13.21, 10.84, 8.01, 7.15, 7.54, 6.65, 4.85, 4.92, 3.48, 3.35, 2.29, 0.74, 0.74, 0.74, 4.77, 4.77, 5.2, 5.2, 5.32, 5.32, 5.36, 5.36, 5.36, 5.36, 5.36, 5.36, 5.36, 5.78, 5.78, 5.78, 5.78, 5.78, 5.78, 5.7, 5.7, 5.7, 6.14, 6.16, 6.16, 6.16, 6.16, 6.16, 6.16, 6.14, 6.14, 6.14, 6.14, 6.58, 6.42, 6.42, 6.42, 6.42, 6.42, 6.42, 6.42, 6.42, 6.42, 6.42, 6.42, 6.85, 6.9, 7.48, 7.48, 7.45, 7.45, 7.01, 7.01, 7.01, 6.55, 6.11, 6.07, 5.64, 5.59, 5.16, 5.16, 4.66, 4.66, 4.85, 8.05, 8.05, 7.81, 7.21, 5.37, 5.95, 8.05, 6.4, 4.22, 3.6, 4.37, 5.36, 8.72, 10.73, 12.24, 12.29, 13.1, 14.82, 16.53, 15.54, 13.21, 12.01, 10.98, 8.46, 8.05, 6.2, 6.26, 1.66, 2.3, 2.98, 1.35, -0.0, -0.0, -0.0, 4.77, 4.77, 5.2, 5.32, 5.32, 5.32, 5.36, 5.36, 5.36, 5.36, 5.36, 5.36, 5.81, 5.78, 5.78, 5.78, 5.78, 5.78, 5.78, 5.7, 5.7, 5.7, 5.7, 6.14, 6.14, 6.16, 6.16, 6.16, 6.14, 6.14, 6.14, 6.14, 6.14, 6.14, 5.99, 6.42, 6.42, 6.42, 6.42, 6.42, 6.42, 6.42, 6.42, 6.42, 6.42, 6.42, 6.85, 6.85, 6.85, 6.85, 6.85, 7.01, 7.01, 7.01, 6.58, 6.11, 6.11, 5.64, 5.64, 5.2, 5.16, 4.73, 4.66, 4.66, 5.29, 8.49, 8.49, 7.15, 7.6, 7.6, 6.79, 5.95, 6.32, 6.7, 7.6, 8.94, 9.39, 10.28, 11.14, 10.85, 11.44, 14.64, 16.85, 15.54, 14.35, 12.72, 11.75, 10.19, 8.89, 10.28, 2.4, 2.53, 2.79, 2.3, 0.72, -0.0, -0.0, -0.0, 5.2, 5.2, 5.2, 5.32, 5.32, 5.32, 5.36, 5.36, 5.36, 5.81, 5.81, 5.36, 5.78, 5.78, 5.78, 5.78, 5.78, 5.78, 5.67, 5.7, 5.7, 5.7, 5.7, 6.14, 6.14, 6.14, 6.14, 6.14, 6.14, 6.14, 6.14, 6.14, 6.14, 5.99, 5.99, 5.99, 6.42, 6.42, 6.42, 6.42, 6.42, 6.42, 6.42, 6.42, 6.42, 6.42, 6.42, 6.85, 6.85, 6.85, 6.85, 6.85, 6.85, 6.85, 6.58, 6.11, 6.11, 5.64, 5.64, 5.2, 5.16, 4.73, 4.66, 4.24, 4.85, 8.05, 8.05, 8.05, 8.05, 7.21, 6.32, 6.32, 7.63, 8.24, 8.94, 8.94, 8.94, 9.83, 10.08, 9.4, 9.81, 13.23, 16.71, 15.87, 14.93, 12.92, 10.8, 9.49, 8.91, -0.0, 2.2, 3.48, 3.84, 1.41, -0.0, -0.0, -0.0, -0.0, 5.2, 5.2, 5.2, 5.32, 5.32, 5.36, 5.36, 5.36, 5.81, 5.81, 5.81, 5.78, 5.78, 5.78, 5.78, 5.78, 5.78, 5.78, 6.11, 6.14, 5.7, 5.7, 5.7, 5.7, 6.14, 6.14, 6.14, 6.14, 6.14, 6.14, 6.14, 6.14, 5.99, 5.99, 5.99, 5.99, 5.99, 5.99, 6.42, 6.42, 6.42, 6.42, 6.42, 6.42, 6.42, 6.42, 6.42, 6.42, 6.85, 6.85, 6.85, 6.85, 6.85, 6.42, 6.36, 5.94, 5.94, 5.86, 5.44, 5.2, 5.16, 4.73, 4.66, 4.24, 4.38, 7.6, 8.05, 8.05, 8.05, 7.6, 8.49, 7.81, 8.24, 8.33, 8.49, 8.49, 8.49, 8.94, 9.11, 8.79, 9.13, 10.95, 13.99, 14.82, 14.75, 12.79, 9.6, 8.0, 4.22, 3.16, 4.92, 4.66, 1.83, -0.0, -0.69, -0.0, -0.0, -0.0, 5.2, 5.2, 5.32, 5.32, 5.32, 5.36, 5.36, 5.36, 5.81, 5.81, 5.81, 5.78, 5.78, 5.78, 5.78, 5.78, 5.78, 6.11, 6.11, 6.11, 6.14, 5.7, 5.7, 5.7, 6.14, 6.14, 6.14, 6.14, 6.14, 6.14, 6.14, 6.14, 5.99, 5.99, 5.99, 5.99, 5.99, 5.99, 5.99, 5.99, 6.42, 6.42, 6.42, 6.42, 6.42, 6.42, 6.42, 6.42, 6.42, 6.42, 6.85, 6.42, 6.42, 6.42, 6.36, 6.36, 5.94, 5.86, 5.44, 5.44, 5.2, 5.16, 4.73, 4.24, 4.15, 6.51, 7.15, 7.6, 7.45, 7.89, 8.05, 8.49, 8.24, 7.89, 7.89, 7.89, 8.05, 8.05, 8.38, 8.22, 8.91, 9.66, 9.9, 12.16, 13.54, 13.07, 6.44, 3.2, 2.23, 4.47, 4.0, -0.0, -0.82, -0.83, -0.69, -0.69, -0.69, -0.69, 5.2, 5.2, 5.32, 5.32, 5.32, 5.32, 5.36, 5.81, 5.81, 5.81, 5.81, 5.78, 5.78, 5.78, 5.78, 5.78, 5.67, 6.11, 6.11, 6.11, 6.11, 5.7, 5.7, 5.7, 5.7, 6.14, 6.14, 6.14, 6.14, 6.14, 6.14, 5.99, 5.99, 5.99, 5.99, 5.99, 5.99, 5.99, 5.99, 5.99, 5.99, 6.42, 6.42, 6.42, 6.42, 6.42, 6.42, 6.42, 6.42, 6.42, 6.42, 6.42, 6.42, 6.36, 6.36, 6.36, 5.94, 5.86, 5.44, 5.44, 5.02, 5.16, 4.73, 4.24, 4.15, 6.07, 6.51, 7.15, 7.37, 7.6, 7.6, 7.6, 7.89, 7.89, 7.47, 7.81, 8.05, 8.05, 8.33, 8.48, 9.11, 8.79, 8.6, 10.15, 13.57, 10.62, 4.8, 0.98, 4.0, 2.2, -0.0, -1.65, -1.4, -1.55, -0.69, -0.74, -0.74, -0.74, 5.2, 5.2, 5.32, 5.32, 5.32, 5.32, 5.36, 5.81, 5.81, 5.81, 5.81, 5.78, 5.78, 5.78, 5.78, 5.78, 5.67, 5.67, 6.11, 6.11, 6.11, 5.67, 5.7, 5.7, 5.7, 5.7, 5.57, 5.99, 5.99, 5.99, 5.99, 5.99, 5.99, 5.99, 5.99, 5.99, 5.99, 5.99, 5.99, 5.99, 5.99, 6.42, 6.42, 6.42, 6.42, 6.42, 6.42, 6.42, 6.42, 6.42, 6.42, 6.42, 6.42, 6.36, 6.36, 6.36, 5.94, 5.86, 5.44, 5.44, 5.02, 4.93, 4.52, 4.0, 3.74, 3.2, 6.51, 6.36, 6.71, 7.15, 7.15, 7.15, 7.15, 6.0, 7.89, 7.2, 8.24, 8.49, 8.94, 8.77, 8.6, 8.67, 8.67, 9.7, 15.2, 11.18, 3.51, 2.84, 4.92, -4.11, -3.33, -1.36, -1.52, -1.63, -1.55, -1.75, -1.75, -1.75, 5.2, 5.2, 5.32, 5.32, 5.32, 5.36, 5.36, 5.81, 5.81, 5.81, 5.81, 5.78, 5.78, 5.78, 5.78, 5.67, 5.67, 5.67, 6.11, 6.11, 6.11, 5.67, 5.7, 5.7, 5.57, 5.57, 5.57, 5.57, 5.57, 5.57, 5.57, 5.57, 5.57, 5.99, 5.99, 5.99, 5.99, 5.99, 5.99, 5.99, 5.99, 5.99, 6.42, 6.42, 6.42, 6.42, 6.42, 6.42, 6.42, 6.42, 6.42, 6.42, 6.36, 6.36, 6.36, 6.36, 5.94, 5.86, 5.86, 5.44, 5.44, 4.93, 4.52, 4.52, 3.74, 3.2, 6.36, 6.36, 6.0, 7.15, 7.15, 7.15, 7.15, 6.36, 5.72, 6.8, 8.49, 8.49, 8.49, 8.94, 8.49, 8.41, 8.43, 14.3, 16.08, 12.5, 5.36, 4.02, 7.15, -6.44, -5.35, -2.51, -1.72, -2.99, -2.69, -1.75, -1.75, -1.75, 5.32, 5.32, 5.32, 5.32, 5.32, 5.36, 5.36, 5.81, 5.81, 5.81, 5.81, 5.78, 5.78, 5.78, 5.78, 5.67, 5.67, 5.67, 6.11, 6.11, 6.11, 5.67, 5.67, 5.57, 5.57, 5.57, 5.57, 5.57, 5.57, 5.57, 5.57, 5.57, 5.57, 5.57, 5.57, 5.99, 5.99, 5.99, 5.99, 5.99, 5.99, 5.99, 5.99, 5.99, 6.42, 6.42, 6.42, 6.42, 6.42, 6.42, 6.42, 6.13, 6.13, 6.13, 6.13, 6.13, 5.72, 5.86, 5.86, 5.44, 5.44, 4.93, 4.93, 4.52, 3.74, 3.2, 3.2, 3.2, 6.79, 6.4, 6.4, 5.37, 7.21, 8.05, 7.2, 7.6, 8.05, 8.05, 8.05, 8.05, 7.6, 7.6, 9.83, 14.28, 16.54, 12.07, 5.77, 6.4, -6.7, -6.98, -6.01, -4.16, -3.4, -4.0, -3.81, -2.7, -2.7, -2.7, 5.32, 5.32, 5.32, 5.32, 5.32, 5.36, 5.36, 5.81, 5.81, 5.81, 5.81, 5.78, 5.78, 5.78, 5.78, 5.67, 5.67, 6.11, 6.11, 6.11, 6.11, 5.67, 5.67, 5.51, 5.51, 5.57, 5.57, 5.57, 5.57, 5.57, 5.57, 5.57, 5.57, 5.57, 5.57, 5.57, 5.99, 5.99, 5.99, 5.99, 5.99, 5.99, 5.99, 5.99, 5.99, 5.99, 6.42, 6.42, 6.42, 6.42, 6.23, 6.13, 6.13, 6.13, 6.13, 5.72, 5.72, 5.6, 5.6, 5.2, 5.34, 4.93, 4.93, 4.52, 4.0, 3.32, 2.8, 2.8, 6.0, 6.79, 7.21, 7.21, 7.63, 8.49, 8.06, 7.2, 5.69, 7.6, 7.6, 7.15, 7.15, 7.6, 8.45, 12.3, 15.34, 11.15, 5.81, 0.0, -6.52, -7.95, -6.68, -5.49, -4.98, -4.78, -3.99, -2.97, -2.97, -2.97, 4.88, 4.88, 5.32, 5.32, 5.32, 5.36, 5.36, 5.81, 5.81, 5.81, 5.81, 5.78, 5.78, 5.78, 5.78, 5.67, 5.67, 6.11, 6.11, 6.11, 6.11, 6.11, 5.51, 5.51, 5.51, 5.51, 5.51, 5.57, 5.57, 5.57, 5.57, 5.57, 5.57, 5.57, 5.57, 5.57, 5.57, 5.99, 5.99, 5.99, 5.99, 5.99, 5.99, 5.99, 5.99, 5.99, 5.99, 6.42, 6.42, 6.42, 6.23, 6.13, 6.13, 6.13, 6.13, 5.72, 5.72, 5.6, 5.6, 5.2, 5.05, 4.66, 4.66, 4.52, 4.0, 3.6, 3.07, 2.8, 3.6, 6.79, 7.21, 7.21, 7.6, 8.05, 8.24, 8.05, 8.05, 5.69, 6.8, 6.8, 7.21, 7.15, 6.71, 9.72, 13.96, 13.21, 6.02, -8.05, -6.39, -7.33, -7.31, -6.51, -5.7, -5.7, -4.99, -4.18, -4.18, -4.18, 4.88, 4.88, 5.32, 5.32, 5.32, 5.36, 5.36, 5.81, 5.81, 5.81, 5.81, 5.78, 5.78, 5.78, 5.78, 5.67, 5.67, 6.11, 6.11, 6.11, 6.11, 5.94, 5.51, 5.51, 5.51, 5.51, 5.51, 5.51, 5.51, 5.51, 5.51, 5.51, 5.51, 5.51, 5.51, 5.51, 5.51, 5.51, 5.99, 5.99, 5.99, 5.99, 5.99, 5.99, 5.99, 5.99, 5.99, 6.42, 6.42, 6.42, 6.13, 6.13, 6.13, 6.13, 5.72, 5.72, 5.72, 5.6, 5.6, 5.6, 5.05, 5.05, 4.66, 4.27, 4.27, 3.72, 3.6, 3.07, 3.45, 4.74, 6.4, 6.79, 7.21, 7.6, 8.05, 8.05, 7.6, 7.2, 5.69, 7.2, 7.21, 7.6, 6.71, 8.49, 12.94, 15.47, 11.18, 8.05, -5.63, -7.68, -7.94, -7.55, -5.95, -5.95, -4.99, -3.82, -3.82, -3.82, 4.88, 4.88, 5.32, 5.32, 5.32, 5.36, 5.36, 5.81, 5.81, 5.81, 5.81, 5.78, 5.78, 5.78, 5.78, 5.64, 5.64, 6.07, 6.11, 6.11, 5.94, 5.94, 5.51, 5.51, 5.51, 5.51, 5.51, 5.51, 5.51, 5.51, 5.51, 5.51, 5.51, 5.51, 5.51, 5.51, 5.51, 5.51, 5.51, 5.94, 5.99, 5.99, 5.99, 5.99, 5.99, 5.99, 5.99, 5.99, 6.42, 6.42, 6.13, 6.13, 6.13, 5.72, 5.72, 5.72, 5.72, 5.6, 5.6, 5.6, 5.05, 5.05, 4.66, 4.66, 4.27, 4.27, 3.72, 3.72, 3.49, 5.06, 5.06, 5.95, 6.4, 7.15, 7.6, 7.6, 7.6, 7.6, 6.8, 8.05, 8.05, 8.05, 7.5, 8.01, 12.05, 15.18, 14.73, 11.15, 9.75, -2.6, -7.42, -7.08, -6.31, -5.95, -4.99, -4.18, -4.18, -4.18, 4.88, 4.88, 5.32, 5.32, 5.32, 5.36, 5.36, 5.81, 5.81, 5.81, 5.81, 5.78, 5.78, 5.78, 5.78, 5.64, 5.64, 6.07, 6.07, 6.11, 5.94, 5.94, 5.51, 5.51, 5.51, 5.51, 5.51, 5.51, 5.51, 5.51, 5.51, 5.51, 5.51, 5.51, 5.51, 5.51, 5.51, 5.51, 5.51, 5.51, 5.51, 5.99, 5.99, 5.99, 5.99, 5.99, 5.99, 5.99, 5.99, 6.42, 6.13, 5.72, 5.72, 5.72, 5.72, 5.72, 5.72, 5.6, 5.6, 5.6, 5.05, 5.05, 4.66, 4.66, 4.27, 4.27, 4.27, 3.78, 3.78, 4.12, 4.11, 6.32, 6.4, 6.4, 7.15, 7.6, 8.05, 8.05, 8.05, 8.05, 8.05, 8.05, 7.5, 7.89, 11.52, 14.73, 14.75, 12.88, 11.53, 10.52, -0.0, -6.2, -5.76, -5.14, -4.8, -4.18, -4.18, -4.18, 4.88, 4.88, 5.32, 5.32, 5.33, 5.36, 5.36, 5.81, 5.81, 5.81, 5.81, 5.78, 5.78, 5.78, 5.77, 5.64, 6.07, 6.07, 6.07, 6.07, 5.86, 5.94, 5.51, 5.51, 5.51, 5.51, 5.51, 5.51, 5.51, 5.51, 5.51, 5.51, 5.51, 5.51, 5.51, 5.51, 5.51, 5.51, 5.51, 5.51, 5.51, 5.51, 5.99, 5.99, 5.99, 5.99, 5.99, 5.99, 5.99, 5.99, 5.72, 5.72, 5.72, 5.72, 5.72, 5.72, 5.72, 5.6, 5.6, 5.6, 5.05, 5.05, 4.66, 4.37, 4.37, 4.0, 4.0, 3.78, 4.12, 4.12, 4.46, 5.37, 6.79, 7.63, 7.15, 7.6, 8.05, 8.05, 8.05, 8.05, 8.05, 7.37, 7.63, 8.06, 10.49, 13.84, 14.3, 12.87, 11.89, 10.98, 9.2, -0.0, -4.44, -4.8, -4.25, -3.65, -3.65, -3.65, 5.32, 5.32, 5.32, 5.33, 5.36, 5.36, 5.36, 5.36, 5.81, 5.81, 5.81, 5.78, 5.78, 5.78, 5.77, 5.64, 6.07, 6.07, 6.07, 5.86, 5.86, 5.86, 5.51, 5.51, 5.51, 5.51, 5.51, 5.51, 5.51, 5.51, 5.51, 5.51, 5.51, 5.51, 5.51, 5.51, 5.51, 5.51, 5.51, 5.51, 5.51, 5.51, 5.94, 5.99, 5.99, 5.99, 5.99, 5.99, 5.99, 5.99, 6.13, 5.72, 5.72, 5.72, 5.72, 5.72, 5.72, 5.6, 5.6, 5.6, 5.2, 4.73, 4.73, 4.37, 4.37, 4.0, 4.0, 4.37, 4.12, 4.12, 4.12, 4.84, 4.8, 7.63, 7.15, 7.6, 7.6, 8.05, 8.05, 8.05, 7.2, 6.8, 6.9, 7.95, 9.58, 12.49, 13.39, 12.77, 12.14, 11.45, 9.36, 4.6, -2.23, -4.25, -3.82, -4.18, -4.18, -4.18, 5.32, 5.32, 5.32, 5.33, 5.36, 5.36, 5.36, 5.36, 5.81, 5.81, 5.81, 5.78, 5.78, 5.78, 5.77, 5.64, 6.07, 6.07, 6.07, 5.86, 5.86, 5.86, 5.51, 5.51, 5.51, 5.51, 5.51, 5.51, 5.51, 5.51, 5.51, 5.51, 5.51, 5.51, 5.51, 5.51, 5.51, 5.51, 5.51, 5.51, 5.51, 5.51, 5.94, 5.99, 5.99, 5.99, 5.99, 5.99, 5.99, 5.99, 6.13, 5.72, 5.72, 5.72, 5.72, 5.72, 5.72, 5.6, 5.6, 5.6, 5.2, 4.73, 4.73, 4.37, 4.37, 4.0, 4.0, 4.37, 4.12, 4.12, 4.12, 4.84, 4.8, 7.63, 7.15, 7.6, 8.05, 8.05, 8.05, 8.05, 7.2, 6.7, 7.47, 7.95, 9.24, 11.15, 12.94, 13.21, 13.05, 12.14, 10.4, 7.74, -0.0, -2.49, -3.61, -3.61, -3.61, -3.61]}, {"header": {"dx": 0.06612293990616946, "dy": 0.0552356325346848, "nx": 98, "ny": 59, "la1": 35.046912555036876, "la2": 31.78801023549047, "lo1": -121.43107172385933, "lo2": -114.95102361305473, "refTime": "2026042003", "parameterCategory": 1, "parameterNumber": 3}, "data": [1.27, 0.66, 0.66, 0.0, 0.0, 0.0, 0.0, 0.0, 0.0, 0.0, 0.0, 0.0, 0.0, 0.0, 0.0, 0.0, 0.0, 0.0, 0.0, 0.0, 3.11, 3.39, 3.65, 3.11, 2.7, 3.61, 4.18, 4.2, 3.7, 3.88, 4.6, 5.2, 2.28, 0.0, 0.0, 0.0, 0.0, 5.69, 11.62, 11.46, 9.58, 9.21, 9.74, 10.28, 9.55, 7.68, 6.14, 5.46, 5.7, 5.1, 5.45, 5.98, 4.6, 4.6, 3.61, 2.49, 2.49, 1.28, 1.28, 1.11, 1.16, 1.39, 1.69, 5.29, 7.27, 6.95, 6.4, 5.21, 4.4, 3.65, 2.83, 2.95, 2.04, 0.94, 1.0, 0.99, 1.05, 0.0, 1.05, 4.71, 8.17, 8.94, 9.39, 9.7, 9.55, 8.43, 8.43, 8.43, 9.33, 9.39, 9.21, 8.3, 6.79, 6.01, 4.14, 2.54, 2.54, 3.4, 1.27, 0.66, 0.66, 0.0, 0.0, 0.0, 0.0, 0.0, 0.0, 0.0, 0.0, 0.0, 0.0, 0.0, 0.0, 0.0, 0.0, 0.0, 0.0, 0.0, 0.0, 3.39, 5.0, 6.71, 6.42, 5.7, 4.21, 2.51, 2.35, 4.43, 6.98, 5.75, 5.72, 4.43, 6.07, 7.15, 4.8, 8.3, 11.62, 11.33, 11.33, 11.55, 11.18, 9.75, 7.87, 5.06, 4.6, 5.7, 5.7, 6.24, 6.24, 5.69, 4.18, 3.51, 2.95, 2.23, 2.39, 1.22, 1.16, 1.14, 1.33, 1.69, 5.52, 7.59, 7.9, 6.58, 4.88, 2.7, 2.39, 2.13, 1.93, 1.09, 1.22, 0.0, 0.0, 0.0, 0.0, 0.0, 1.05, 4.71, 8.17, 8.94, 9.39, 9.7, 9.55, 8.43, 8.43, 8.43, 9.33, 9.39, 9.21, 8.3, 6.79, 6.01, 4.14, 2.54, 2.54, 3.4, 1.27, 0.66, 0.73, 0.73, 0.0, 0.0, 0.0, 0.0, 0.0, 0.0, 0.0, 0.0, 0.0, 0.0, 0.0, 0.0, 0.0, 0.0, 0.0, 0.0, 0.0, 0.0, 5.95, 9.3, 10.04, 7.13, 5.37, 4.56, 7.6, 8.94, 9.26, 6.94, 3.48, 5.37, 4.87, 5.81, 5.32, 8.73, 11.62, 11.76, 11.21, 10.73, 9.96, 6.17, 3.65, 3.65, 5.06, 5.29, 5.7, 5.32, 5.32, 4.36, 3.82, 2.95, 1.93, 2.49, 1.22, 1.33, 1.0, 1.33, 1.62, 3.98, 7.59, 8.24, 7.59, 4.6, 3.11, 2.7, 2.7, 1.22, 2.04, 1.04, 0.0, 0.0, 0.0, 0.0, 0.0, 0.0, 0.0, 4.0, 8.85, 8.94, 8.94, 9.39, 9.26, 9.03, 8.0, 8.72, 8.91, 9.39, 8.77, 7.89, 6.44, 5.69, 4.14, 3.91, 3.91, 3.4, 1.41, 0.73, 0.73, 0.73, 0.0, 0.0, 0.0, 0.0, 0.0, -1.7, -2.2, -2.2, 0.0, 0.0, 0.0, 0.0, 0.0, 0.0, -2.06, -2.17, 0.0, 0.0, 0.0, 5.21, 6.95, 7.33, 7.74, 8.49, 8.29, 9.26, 9.21, 7.37, 4.74, 4.89, 5.73, 7.15, 8.49, 10.2, 11.62, 12.07, 11.18, 9.54, 5.21, 0.0, 0.0, 1.84, 1.93, 3.82, 4.6, 4.23, 3.61, 2.95, 2.02, 2.02, 2.49, 2.39, 1.33, 1.2, 1.07, 1.62, 3.82, 7.59, 9.3, 7.59, 6.87, 5.95, 4.6, 4.88, 5.21, 4.56, 4.56, 3.63, 1.95, 0.0, 0.0, -1.4, -4.0, -2.46, 0.0, 4.6, 8.05, 8.49, 8.94, 8.94, 9.39, 9.7, 9.7, 9.33, 9.26, 8.94, 8.33, 7.47, 6.44, 4.83, 5.37, 5.06, 4.75, 4.75, 1.23, 1.23, 0.63, 0.81, 0.0, 0.0, 0.0, 0.0, 0.0, -1.7, -2.0, -2.2, -3.4, -2.69, -2.06, -2.06, -1.58, -1.58, -1.58, -4.0, -3.11, 0.0, 2.97, 8.18, 7.6, 8.49, 8.87, 9.16, 9.33, 8.94, 8.49, 7.67, 3.14, 3.7, 8.23, 10.28, 9.83, 10.08, 10.58, 10.73, 10.08, 8.0, 6.32, 2.17, 0.0, 0.0, 0.0, 1.93, 3.25, 2.49, 2.49, 2.23, 2.23, 2.23, 2.49, 1.22, 1.26, 0.0, 1.32, 1.93, 6.44, 8.38, 9.3, 8.59, 8.15, 8.41, 8.07, 7.81, 6.95, 6.64, 6.14, 5.28, 4.07, 3.17, 1.67, -2.69, -5.59, 0.0, 6.63, 5.37, 7.6, 8.49, 8.94, 8.94, 9.39, 10.18, 10.18, 9.7, 9.26, 8.49, 8.05, 7.94, 6.9, 6.44, 7.06, 6.13, 5.37, 3.97, 1.23, 1.23, 0.63, 0.7, 0.0, 0.0, 0.0, 0.0, 0.0, -1.19, -2.0, -2.2, -3.2, -3.6, -2.06, -3.8, -3.6, -3.4, -3.6, -5.1, -6.32, -4.96, 7.27, 10.28, 9.39, 8.48, 7.81, 8.41, 8.49, 8.82, 7.52, 7.2, 3.35, 2.04, 3.32, 7.44, 8.49, 7.81, 8.0, 9.83, 9.39, 10.08, 8.54, 8.0, 4.83, 2.39, 0.0, 0.0, 0.0, 1.39, 2.28, 2.39, 1.28, 1.28, 1.28, 0.0, 0.0, 0.0, 0.0, 3.82, 8.94, 8.58, 10.0, 10.0, 10.4, 9.67, 9.3, 8.38, 7.4, 6.64, 4.6, 4.0, 4.0, 3.63, 4.0, 0.0, 0.0, 8.67, 8.85, 7.2, 7.63, 8.38, 8.49, 8.94, 9.39, 9.83, 9.83, 8.94, 8.49, 8.05, 8.05, 7.94, 7.47, 7.89, 7.06, 6.4, 5.37, 3.2, 1.23, 1.23, 0.63, 0.7, 0.7, 0.0, 0.0, 0.0, 0.0, -1.3, -1.41, -2.73, -2.26, -2.54, -4.2, -4.46, -4.83, -4.56, -4.83, -5.69, -6.44, -6.01, 6.32, 9.39, 9.11, 8.0, 8.0, 8.94, 8.06, 6.8, 8.94, 7.37, 4.94, 4.0, 2.97, 5.36, 8.67, 9.11, 8.4, 8.67, 9.83, 10.28, 10.41, 9.58, 7.9, 6.44, 6.24, 3.82, 0.0, 2.02, 3.25, 1.45, 1.28, 0.0, 0.0, -1.09, -1.2, 0.0, 0.0, 4.8, 7.9, 10.0, 9.96, 10.46, 10.79, 10.18, 8.93, 7.78, 5.21, 3.11, 0.93, 0.0, 0.0, 0.0, 4.4, 9.39, 9.39, 8.94, 8.49, 8.6, 7.07, 7.28, 7.89, 8.49, 8.49, 8.05, 8.05, 8.05, 7.6, 7.15, 7.15, 7.6, 8.49, 8.05, 7.06, 6.8, 4.75, 3.2, 1.23, 1.23, 0.63, 0.7, 0.7, 0.0, 0.0, 0.0, 0.0, -0.96, -2.0, -2.48, -3.2, -1.84, -1.95, -4.02, -4.02, -4.56, -4.75, -4.14, -4.56, -1.73, 2.69, 8.49, -0.0, -0.0, 0.0, 0.0, 0.0, 8.06, 7.51, 8.03, 7.27, 4.6, 3.15, 1.95, 4.46, 7.6, 7.44, 7.81, 7.81, 8.8, 8.8, 5.7, 6.17, 8.22, 7.9, 8.35, 7.27, 6.58, 4.0, 1.39, 0.0, -2.13, -2.97, -3.14, -2.54, -2.82, 0.0, 2.71, 6.2, 10.0, 10.96, 10.41, 10.21, 9.08, 6.72, 3.96, 0.0, -1.07, -1.93, -2.04, -3.25, -5.29, 7.27, 8.82, 9.39, 9.39, 9.32, 8.22, 6.55, 6.01, 7.28, 8.06, 8.05, 7.15, 6.61, 6.58, 6.14, 6.14, 6.14, 7.15, 8.05, 7.6, 6.79, 5.93, 4.75, 3.2, 1.23, 1.35, 0.7, 0.7, 0.7, 0.0, 0.0, 0.0, -0.88, -0.81, -1.66, -2.68, -5.37, -4.74, -3.2, -3.0, -4.29, -4.56, -4.56, -3.6, -2.69, 0.0, 2.54, 8.49, -0.0, 0.0, -5.69, -6.01, -0.0, 5.36, 5.63, 5.21, 2.83, -0.0, -0.0, -0.0, -0.0, -0.0, 5.69, 2.69, 2.28, 5.46, 5.21, 5.46, 5.7, 5.06, 9.08, 9.46, 9.0, 8.27, 6.44, 2.28, -1.33, -4.66, -5.82, -5.72, -4.75, -5.06, -2.69, 3.53, 10.0, 10.91, 10.41, 10.6, 10.16, 6.97, 4.28, 1.08, -2.28, -5.21, -4.98, -3.8, -5.69, -7.27, 9.83, 9.13, 8.91, 9.83, 10.18, 8.0, 7.28, 5.69, 6.01, 6.9, 7.63, 7.06, 6.61, 6.58, 5.7, 5.26, 5.73, 6.71, 7.15, 7.6, 6.79, 5.93, 4.75, 3.2, 1.23, 1.35, 0.7, 0.7, 0.7, 0.0, 0.0, 0.0, -0.88, -0.88, -1.55, -2.76, -3.43, -4.11, -4.56, -4.29, -4.02, -4.74, -5.06, -5.06, -3.4, 0.0, 0.0, 0.0, 0.0, 0.0, 0.0, 0.0, -0.0, 2.06, -0.0, -0.0, -8.05, -6.01, -0.0, -0.0, 0.0, 0.0, 0.0, 0.0, 1.67, 4.0, 4.0, 4.71, 3.8, 4.2, 5.63, 6.95, 7.27, 6.42, 6.88, 7.87, 8.72, 9.39, 0.0, -8.94, -7.63, -6.4, 4.0, 11.02, 11.02, 11.36, 12.08, 10.43, 10.6, 9.08, 6.63, 5.4, 0.0, -6.44, -5.59, -5.37, -7.27, -8.58, 9.75, 9.26, 9.7, 9.39, 8.82, 8.4, 7.64, 6.73, 6.44, 6.11, 6.6, 6.57, 6.45, 5.94, 5.4, 5.26, 5.29, 6.17, 7.6, 7.6, 7.06, 5.59, 4.47, 3.2, 1.23, 1.35, 1.35, 0.7, 0.7, 0.0, 0.0, 0.0, -0.76, -0.76, -1.7, -2.4, -2.88, -3.38, -4.83, -3.91, -4.75, -2.84, -2.22, -1.8, -1.7, -1.7, -1.7, 0.0, 0.0, 0.0, -4.74, -4.74, -7.15, -0.0, -5.06, -4.74, -7.15, -5.06, -3.2, -0.0, 0.0, 0.0, 1.84, 1.67, 4.0, 5.36, 5.1, 3.8, 2.17, 4.71, 7.6, 7.6, 6.01, 6.87, 10.56, 12.05, 14.11, 15.17, 14.3, 13.41, 11.62, 8.49, 9.39, 11.18, 11.6, 12.3, 11.87, 11.62, 11.62, 12.53, 12.81, 12.03, 9.76, 7.21, 2.8, -3.2, -8.82, -9.6, 9.2, 9.83, 8.94, 9.39, 9.64, 9.2, 8.05, 7.21, 6.01, 6.06, 6.32, 6.54, 6.28, 6.02, 5.34, 5.09, 5.4, 6.23, 6.58, 7.06, 6.64, 6.13, 5.06, 3.68, 1.35, 1.35, 1.35, 0.7, 0.61, 0.0, 0.0, 0.0, -0.76, -0.76, -1.47, -2.29, -2.88, -2.8, -3.47, -3.2, -1.88, -1.36, -0.65, 0.0, 0.0, 0.0, 0.0, 0.0, 0.0, 0.0, 0.0, 0.0, 0.0, -2.6, -1.98, 0.0, 0.0, 0.0, -5.06, -5.06, 0.0, 2.69, 3.8, 4.0, 4.96, 5.59, 5.03, 3.15, 2.06, 6.7, 8.94, 9.21, 9.21, 10.28, 11.11, 12.45, 15.44, 17.2, 16.52, 16.07, 14.11, 11.06, 9.39, 11.62, 11.59, 11.36, 10.95, 10.95, 12.87, 15.2, 15.2, 14.75, 13.38, 11.61, 9.45, 7.06, 0.0, -7.9, 10.28, 9.83, 8.94, 8.77, 8.0, 8.4, 8.8, 8.43, 7.9, 6.39, 6.35, 7.2, 7.06, 6.28, 5.86, 5.05, 4.98, 4.65, 5.4, 5.81, 6.23, 5.75, 4.74, 4.74, 1.35, 1.35, 1.19, 0.61, 0.61, 0.0, 0.0, 0.0, 0.0, -0.67, -1.41, -1.41, -2.04, -2.8, -2.72, -2.44, -1.84, -0.67, 0.0, 0.0, 0.55, 0.0, 0.0, 0.0, 0.0, 0.0, 0.59, 0.57, 0.0, 0.0, -1.23, 0.0, 0.0, 0.0, -1.84, 0.0, 1.95, 3.8, 6.01, 5.36, 3.32, 2.99, 2.66, 1.84, 6.01, 8.94, 9.39, 9.39, 9.83, 10.58, 8.72, 8.35, 8.85, 10.01, 12.72, 13.41, 13.01, 12.51, 10.16, 11.13, 11.44, 10.41, 10.18, 11.06, 12.96, 13.21, 14.11, 14.72, 13.28, 12.45, 11.5, 9.92, 7.74, 7.9, 9.97, 9.64, 8.72, 7.28, 6.7, 6.63, 7.15, 6.95, 6.14, 5.06, 6.79, 7.42, 7.03, 6.64, 6.13, 5.86, 4.73, 4.19, 4.65, 4.65, 4.98, 5.37, 5.37, 5.36, 1.35, 1.19, 1.19, 0.61, 0.61, 0.0, 0.0, 0.0, 0.0, -0.72, -1.41, -1.41, -2.04, -1.98, -2.54, -2.49, -1.88, -1.18, -0.58, 0.0, 0.0, 0.0, 0.0, 0.0, 0.0, 0.0, 0.0, 0.0, 0.0, 0.0, -1.26, -1.1, 0.0, 0.0, 0.0, 0.0, 1.84, 5.1, 4.96, 3.8, 1.58, 0.0, 0.0, 2.69, 8.49, 8.94, 7.6, 8.94, 9.39, 8.91, 6.95, 4.6, 2.39, -0.0, -0.0, -0.0, 10.28, 11.46, 11.2, 9.4, 10.66, 11.09, 11.11, 11.62, 11.18, 10.58, 10.25, 10.58, 11.28, 9.3, 9.69, 9.4, 8.93, 9.48, 9.2, 8.43, 8.05, 7.44, 6.52, 6.01, 6.32, 5.86, 4.83, 3.32, 5.86, 6.87, 7.2, 6.94, 6.64, 5.86, 6.32, 4.12, 4.54, 4.65, 3.79, 4.29, 4.98, 5.37, 1.73, 1.19, 1.19, 0.61, 0.61, 0.0, 0.0, 0.0, 0.0, -0.72, -0.72, -1.41, -1.26, -1.98, -1.98, -1.8, -1.8, -1.76, -1.2, -0.56, 0.0, 0.0, 0.0, 0.0, 0.0, 0.0, 0.0, 0.0, 0.0, 0.0, -1.2, -1.98, -1.49, 0.0, 0.0, 2.17, 5.21, 6.32, 4.4, 1.84, 0.0, 0.0, -1.84, 3.6, 8.05, 8.49, 8.49, 8.05, 8.49, 7.6, 6.32, 6.01, 0.0, 0.0, 0.0, 0.0, -0.0, 8.49, 6.3, 7.9, 9.33, 9.83, 9.83, 10.08, 10.08, 10.73, 9.97, 9.83, 8.18, 7.87, 8.15, 8.37, 8.73, 8.73, 7.81, 7.27, 6.95, 7.21, 6.32, 5.36, 5.1, 4.74, 4.0, 2.69, 1.67, 6.64, 8.0, 7.53, 6.64, 6.94, 6.7, 5.72, 4.46, 4.54, 3.79, 4.19, 4.98, 4.98, 1.73, 1.19, 1.19, 0.61, 0.61, 0.61, 0.0, 0.0, 0.0, 0.0, -0.64, -0.64, -1.26, -1.36, -1.98, -1.8, -1.8, -1.8, -1.12, -0.57, -0.57, 0.0, 0.0, 0.0, 0.0, 0.0, 0.0, 0.0, 0.0, 0.0, -0.56, -1.76, -1.8, -1.58, 0.0, 2.54, 6.32, 7.15, 3.8, 0.0, 0.0, -1.32, 0.0, 6.7, 8.05, 8.05, 8.05, 8.05, 8.05, 7.2, 8.05, 0.0, 0.0, 2.26, 2.12, 3.0, 0.0, -3.4, 0.0, 3.65, 6.64, 9.13, 8.0, 6.32, 5.69, 7.6, 6.8, 8.0, 8.91, 8.67, 8.3, 8.23, 6.42, 5.46, 5.1, 6.87, 6.98, 6.77, 6.18, 5.49, 6.14, 5.64, 4.96, 3.52, 3.15, 3.8, 7.67, 8.06, 7.74, 6.57, 6.07, 4.74, 4.46, 4.11, 3.43, 3.48, 3.84, 3.84, 1.73, 1.19, 1.19, 1.19, 0.61, 0.61, 0.0, 0.0, 0.0, 0.0, -0.64, -0.64, -1.26, -1.36, -1.36, -1.23, -1.8, -1.23, -1.12, -0.57, -0.61, -0.61, -0.61, 0.0, 0.0, 0.0, -0.58, -0.54, -0.57, -0.57, -1.16, -1.73, -1.76, -2.69, 0.0, 2.4, 4.46, 2.54, 0.0, 0.0, -1.84, -2.12, 3.4, 6.0, 7.81, 8.49, 8.49, 8.06, 6.7, 5.37, 4.22, 4.22, 4.46, 3.6, 4.46, 4.46, 1.84, 0.0, 1.67, 5.06, 7.27, 6.95, 5.36, 3.8, 1.95, 1.63, 0.0, 8.05, 9.39, 9.83, 5.46, 0.0, 0.0, 1.76, 3.19, 5.99, 8.53, 7.48, 6.31, 6.05, 6.42, 6.05, 5.04, 4.6, 4.0, 5.31, 6.9, 7.63, 7.06, 5.58, 4.71, 4.71, 4.43, 4.43, 3.22, 2.98, 3.48, 3.48, 1.73, 1.19, 1.19, 1.19, 0.61, 0.61, 0.0, 0.0, 0.0, 0.0, 0.0, -0.64, -0.64, -1.26, -1.36, -1.23, -1.23, -1.23, -1.23, -0.57, -1.2, -1.18, -1.2, -0.61, 0.0, 0.0, -1.22, -1.22, -1.22, -1.78, -1.69, -1.81, -2.4, -2.29, -1.84, -1.32, -1.84, -3.47, -3.2, -3.0, -3.2, 0.0, 0.0, 6.4, 7.21, 8.06, 8.48, 7.44, 7.07, 4.46, 3.6, 3.6, 3.6, 3.6, 4.83, 4.83, 5.1, 4.6, 5.86, 6.95, 6.42, 6.14, 4.83, 3.15, 1.67, 0.0, 2.26, 5.37, 0.0, -4.2, -2.1, -1.33, -1.5, 0.0, 1.83, 6.67, 8.15, 6.48, 5.3, 5.18, 5.06, 4.6, 4.07, 3.49, 4.96, 7.44, 8.0, 7.63, 6.52, 5.59, 4.74, 5.06, 4.07, 3.47, 2.8, 2.6, 2.73, 2.73, 1.73, 1.19, 1.19, 1.19, 0.61, 0.61, 0.0, 0.0, 0.0, 0.0, 0.0, -0.64, -0.64, -1.26, -1.26, -1.25, -1.16, -1.16, -0.64, -0.62, -1.18, -1.88, -2.49, -2.54, -1.07, -1.4, -1.7, -2.99, -3.17, -2.29, -2.75, -2.75, -2.75, -2.96, -3.0, -2.54, -3.08, -4.12, -4.01, -4.02, -2.32, -1.63, 0.0, 2.4, 5.69, 7.07, 7.44, 6.32, 4.71, 3.8, 3.8, 3.6, 3.6, 4.83, 6.79, 6.01, 6.01, 6.64, 6.42, 6.42, 4.4, 4.2, 2.97, 1.58, 0.0, 0.0, 6.4, 6.79, 0.0, -6.95, -4.4, -1.84, 0.0, 0.92, 1.1, 1.66, 0.0, 0.0, 0.79, 1.5, 0.98, 0.89, 0.0, 1.84, 3.7, 6.64, 6.98, 7.2, 6.28, 5.06, 5.06, 4.29, 3.9, 2.29, 2.8, 2.6, 3.35, 3.35, 1.73, 1.73, 1.19, 1.19, 0.61, 0.61, 0.54, 0.0, 0.0, 0.0, 0.0, -0.64, -0.64, -0.64, -1.26, -1.36, -1.26, -1.3, -1.4, -1.25, -2.09, -2.36, -3.08, -3.97, -4.22, -3.0, -1.84, -2.48, -2.22, -2.44, -2.86, -2.84, -2.82, -3.04, -2.8, -2.8, -3.0, -3.45, -2.77, -2.29, -1.28, 0.0, 0.71, 2.4, 3.2, 4.2, 4.96, 4.96, 4.0, 3.8, 3.8, 3.6, 3.6, 5.69, 6.08, 6.9, 6.64, 6.01, 5.86, 5.29, 2.97, 3.49, 1.75, 0.0, 0.0, 6.4, 7.15, 8.24, 4.96, 0.0, 0.0, 0.89, 1.5, 0.77, 0.0, -2.72, -6.67, -7.41, -2.97, -1.6, -0.85, -0.85, -0.89, 1.11, 4.96, 6.52, 7.81, 7.4, 6.32, 5.59, 4.74, 3.0, 2.47, 1.6, 1.7, 2.6, 3.35, 3.35, 1.73, 1.73, 1.19, 1.19, 0.61, 0.54, 0.54, 0.0, 0.0, 0.0, 0.0, 0.0, -0.64, -0.58, -1.26, -1.36, -1.36, -1.84, -1.84, -3.17, -2.09, -1.73, -2.22, -3.49, -3.47, -2.82, -2.35, -2.47, -1.98, -2.32, -2.16, -2.76, -2.98, -2.44, -2.4, -3.08, -3.04, -2.49, -1.73, -1.16, 0.0, 0.57, 1.14, 1.84, 2.49, 3.32, 3.8, 2.17, 2.17, 2.06, 1.95, 1.95, 4.46, 6.44, 7.89, 6.9, 6.98, 6.32, 6.14, 3.49, 1.75, 1.75, 0.0, 0.0, 3.4, 7.15, 8.49, 9.21, 8.05, 6.64, 6.17, 5.2, 3.04, 0.0, -2.35, -5.55, -9.84, -9.62, -7.97, -5.49, -3.15, -2.35, 0.0, 3.99, 6.52, 7.81, 8.17, 7.81, 6.99, 5.82, 4.19, 2.8, 1.6, 0.76, 0.88, 2.76, 4.19, 4.19, 1.73, 1.73, 1.19, 1.19, 0.61, 0.54, 0.54, 0.0, 0.0, 0.0, 0.0, 0.0, -0.58, -0.58, -1.14, -1.23, -1.36, -1.67, -2.32, -2.44, -2.0, -1.32, -2.04, -2.6, -3.04, -2.66, -2.18, -1.49, -0.84, 0.0, 0.0, -0.89, -1.98, -2.6, -2.6, -2.88, -2.8, -2.54, -1.76, -1.18, -0.58, 0.0, 0.58, 1.18, 1.76, 1.98, 1.84, 2.17, 0.0, 0.0, 0.0, 1.95, 6.01, 7.6, 7.6, 8.0, 7.07, 7.51, 6.95, 4.0, 0.0, 0.0, 0.0, 0.0, 6.4, 7.6, 8.94, 9.39, 9.21, 9.64, 9.13, 8.59, 5.28, 2.23, -6.01, -8.23, -10.41, -11.37, -11.3, -9.19, -6.24, -4.12, 0.0, 6.98, 8.0, 8.22, 8.22, 7.6, 6.7, 5.43, 4.16, 2.47, 1.6, 0.76, 1.99, 3.48, 4.54, 4.54, 1.73, 1.73, 1.73, 1.19, 0.61, 0.54, 0.54, 0.0, 0.0, 0.0, 0.0, 0.0, -0.58, -0.58, -0.58, -1.23, -1.23, -1.8, -2.49, -2.44, -1.84, -2.12, -1.44, -2.12, -2.0, -2.12, -2.12, -1.44, -0.67, 0.0, 0.0, 0.0, -0.67, -0.74, -1.52, -2.47, -2.47, -2.2, -2.12, -1.32, -0.65, 0.0, 0.0, 0.65, 1.23, 1.26, 1.75, 0.0, 0.0, 0.0, 0.0, 4.71, 7.07, 7.6, 7.6, 7.6, 7.2, 8.15, 8.18, 6.28, 3.2, 0.0, 0.0, 5.21, 7.01, 8.94, 9.39, 8.94, 9.39, 8.94, 9.39, 8.06, 3.69, 2.32, -3.79, -4.41, -7.98, -9.6, -10.8, -11.2, -9.05, -6.7, 0.0, 7.15, 8.72, 8.05, 8.05, 6.98, 5.59, 3.6, 3.2, 2.35, 1.7, 1.84, 2.99, 3.84, 3.49, 3.49, 1.73, 1.73, 1.73, 1.19, 0.61, 0.54, 0.54, 0.0, 0.0, 0.0, 0.0, 0.0, 0.0, -0.58, -0.58, -1.23, -1.23, -1.8, -1.93, -1.76, -1.88, -1.84, -1.95, -1.95, -1.95, -1.32, -1.32, -1.32, -1.32, -0.62, -0.62, -0.63, -0.59, -0.65, -0.67, -1.45, -1.45, -1.45, -1.45, -1.4, -0.65, -0.65, 0.0, 0.0, 0.0, 0.0, 0.0, 0.0, 0.0, 0.0, 2.17, 3.8, 6.01, 7.07, 7.07, 7.07, 6.32, 7.2, 8.4, 7.44, 6.0, 4.43, 6.4, 7.37, 8.49, 9.39, 9.83, 10.14, 9.21, 8.94, 0.0, 0.0, 0.72, 3.16, 3.3, 1.98, -5.58, -6.79, -8.99, -9.68, -9.46, -5.82, -1.73, 3.6, 7.6, 7.44, 5.1, 4.37, 3.15, 3.8, 3.77, 3.11, 2.66, 2.99, 4.11, 3.79, 3.48, 3.48, 1.73, 1.73, 1.73, 1.19, 1.19, 0.61, 0.54, 0.0, 0.0, 0.0, 0.0, 0.0, 0.0, -0.58, -0.58, -1.23, -1.23, -1.8, -1.76, -1.76, -1.88, -2.44, -2.4, -1.84, -1.81, -1.81, -1.22, -1.22, -1.22, -1.22, -1.22, -0.58, -0.63, -0.63, -0.65, -1.28, -1.28, -1.4, -1.4, -1.28, -0.65, -0.65, 0.0, 0.0, 0.0, 0.0, 0.0, 0.0, 0.0, 0.85, 1.75, 1.62, 3.6, 4.46, 6.01, 7.07, 5.69, 6.4, 7.2, 6.79, 6.32, 3.6, 5.69, 8.05, 8.49, 9.39, 9.83, 9.76, 9.7, 8.05, -7.21, -5.03, 0.0, 3.11, 4.81, 5.4, 3.51, 0.0, -7.06, -7.45, -8.24, -5.82, -3.72, 0.0, 7.6, 5.37, 4.22, 3.6, 4.83, 5.37, 5.93, 4.11, 3.43, 3.63, 3.63, 3.35, 3.79, 3.79, 1.73, 1.73, 1.73, 1.19, 1.19, 0.61, 0.54, 0.0, 0.0, 0.0, 0.0, 0.0, 0.0, -0.58, -0.62, -0.62, -1.23, -1.12, -1.76, -1.76, -1.76, -2.44, -2.44, -2.4, -1.84, -1.84, -1.81, -1.81, -1.22, -1.22, -1.22, -1.22, -1.25, -0.63, -0.63, -0.63, -1.28, -1.28, -1.28, -1.28, -0.65, -0.65, -0.65, 0.0, 0.0, 0.0, 0.0, 0.0, 0.0, 0.0, 0.0, 0.0, 0.0, 1.95, 4.71, 4.71, 5.69, 3.4, 5.37, 5.69, 3.8, 4.83, 4.83, 6.8, 8.05, 9.39, 9.83, 9.83, 8.94, 8.49, -6.8, -6.32, -0.99, 1.63, 4.58, 6.21, 6.44, 3.44, -2.82, -7.52, -7.28, -6.0, -5.6, 4.43, 6.36, 6.79, 5.06, 4.56, 6.08, 6.8, 6.9, 4.81, 3.72, 3.22, 3.22, 2.76, 3.79, 3.79, 1.73, 1.73, 1.73, 1.19, 1.19, 0.61, 0.54, 0.54, 0.0, 0.0, 0.0, 0.0, 0.0, 0.0, -0.62, -0.62, -1.12, -1.12, -1.76, -1.76, -1.76, -1.88, -2.44, -2.44, -2.4, -1.84, -1.84, -1.84, -1.95, -1.22, -1.22, -1.25, -1.25, -1.25, -1.25, -1.25, -1.25, -1.25, -1.28, -0.65, -0.65, -0.65, 0.0, 0.0, 0.0, 0.0, 0.0, 0.0, 0.0, 0.0, 0.0, 0.0, 0.0, 0.0, 0.0, 2.4, 2.54, 2.4, 6.0, 7.15, 0.0, 1.58, 2.17, 4.22, 9.11, 8.94, 9.39, 8.4, 6.32, 0.0, -3.8, -6.44, -3.8, 0.0, 3.49, 5.52, 5.18, 3.44, 0.0, -6.28, -7.31, -6.14, -0.0, 3.22, 5.21, 6.26, 4.74, 5.06, 6.4, 6.8, 5.06, 4.29, 4.19, 2.8, 2.6, 2.4, 3.63, 3.63, 1.73, 1.73, 1.73, 1.19, 1.19, 1.19, 0.61, 0.54, 0.0, 0.0, 0.0, 0.0, 0.0, 0.0, -0.58, -0.57, -1.12, -1.2, -1.2, -1.76, -1.76, -1.76, -1.88, -1.88, -1.88, -1.84, -1.84, -1.84, -1.84, -1.84, -1.25, -1.25, -1.25, -1.25, -1.25, -1.25, -1.25, -1.25, -1.28, -0.65, -0.65, -0.61, 0.0, 0.0, 0.0, 0.0, 0.0, 0.0, -0.74, -0.74, -0.71, -0.73, -0.69, -0.74, -0.72, 0.0, 0.0, 0.0, 5.06, 7.15, 0.0, 0.0, 0.0, 2.06, 8.0, 10.08, 8.91, 0.0, -4.0, -6.32, -6.32, -5.1, -5.31, -4.37, 0.0, 0.0, 0.0, 0.76, 1.0, -1.25, -6.13, -3.47, -0.0, 3.48, 4.8, 4.92, 4.8, 6.36, 5.95, 5.37, 4.22, 1.73, 2.26, 1.72, 1.6, 1.84, 2.6, 2.6, 1.73, 1.73, 1.73, 1.19, 1.19, 1.19, 0.61, 0.54, 0.0, 0.0, 0.0, 0.0, 0.0, 0.0, -0.58, -0.57, -0.57, -1.2, -1.2, -1.76, -1.76, -1.76, -1.88, -1.88, -1.88, -1.88, -1.88, -1.73, -1.84, -1.84, -1.84, -1.25, -1.25, -1.25, -1.25, -1.25, -1.25, -1.28, -1.28, -0.65, -0.61, -0.67, -0.62, 0.0, 0.0, 0.67, 0.0, -1.25, -2.0, -1.47, -1.4, -1.36, -1.4, -1.36, -1.3, -1.76, -1.73, 0.0, 3.0, 5.06, 0.0, -2.26, -1.84, 2.17, 8.4, 9.13, 8.82, 4.2, -7.6, -8.24, -6.01, -3.15, -2.33, -5.72, -7.51, -6.31, -4.6, -1.58, 0.0, 0.0, -0.95, -1.58, -0.51, 1.24, 3.72, 4.24, 4.24, 4.11, 1.98, 1.98, 0.0, 0.0, 0.0, 0.89, 0.89, 0.82, 1.98, 1.98, 1.73, 1.73, 1.73, 1.19, 1.19, 1.19, 0.61, 0.54, 0.0, 0.0, 0.0, 0.0, 0.0, 0.0, 0.0, -0.57, -0.57, -1.2, -1.2, -1.2, -1.76, -1.76, -1.76, -1.76, -1.88, -1.88, -1.88, -1.88, -1.73, -1.84, -1.84, -1.84, -1.25, -1.25, -1.25, -1.25, -1.25, -1.28, -1.28, -1.28, -0.61, -0.67, -0.62, -0.64, 0.0, 0.0, 0.0, -1.23, -1.84, -1.7, -1.7, -1.7, -1.8, -1.7, -1.73, -1.76, -1.76, -1.41, 0.0, 0.0, 0.0, -1.73, 0.0, 4.71, 7.44, 7.44, 9.11, 9.97, 7.6, -6.71, -5.94, 0.0, 1.05, 0.0, -5.29, -7.18, -6.57, -4.8, -1.93, 0.0, 0.0, -0.54, -0.51, 0.0, 1.55, 2.15, 2.84, 1.8, 0.0, 0.0, 0.0, 0.0, 0.0, 0.0, 0.0, 0.0, 1.03, 1.03, 1.73, 1.73, 1.73, 1.19, 1.19, 1.19, 0.61, 0.54, 0.0, 0.0, 0.0, 0.0, 0.0, 0.0, 0.0, -0.57, -0.57, -0.57, -1.2, -1.2, -1.2, -1.76, -1.76, -1.76, -1.76, -1.88, -1.88, -1.88, -1.28, -1.73, -1.84, -1.84, -1.84, -1.84, -1.25, -1.25, -1.28, -1.28, -1.28, -1.2, -1.2, -1.23, -1.23, -1.26, -1.26, -2.21, -1.05, -0.67, -0.64, -0.67, -0.78, -0.83, -1.84, -2.29, -2.4, -2.2, -2.0, -2.0, -0.79, 0.0, 0.0, 0.0, 2.69, 4.71, 2.69, 3.6, 8.05, 8.94, 8.94, 0.0, -4.43, 5.37, 5.31, 5.0, 2.45, -2.82, -6.15, -6.04, -3.63, -1.56, -0.69, 0.0, 0.0, 1.07, 1.59, 1.53, 1.57, 1.49, 0.88, 0.0, -1.55, -2.2, -1.3, -1.03, 0.0, 0.0, 0.0, 0.0, 1.73, 1.73, 1.73, 1.19, 1.19, 1.19, 0.61, 0.59, 0.0, 0.0, 0.0, 0.0, 0.0, 0.0, 0.0, -0.53, -0.57, -0.57, -1.2, -1.2, -1.2, -1.2, -1.76, -1.76, -1.76, -1.76, -1.76, -1.76, -2.06, -1.32, -1.88, -1.88, -1.88, -1.88, -1.88, -1.88, -1.76, -1.2, -1.2, -1.2, -1.23, -1.23, -1.23, -1.23, -1.8, -2.44, -1.95, -0.71, -0.85, 0.0, 0.0, 0.0, 0.0, 0.0, 0.0, -2.16, -1.83, -1.66, -1.66, -0.88, 0.0, 0.0, 4.71, 1.95, 0.0, 0.0, 0.0, 0.0, 0.0, 0.0, 0.0, 8.0, 8.4, 3.82, 4.55, 1.66, -2.23, -6.63, -5.15, -2.9, -1.36, 0.0, 1.36, 2.17, 2.25, 2.17, 1.53, 1.57, 1.84, 0.76, 0.0, -2.98, -2.73, -2.16, -1.03, -0.89, 0.0, 0.0, 1.73, 1.73, 1.73, 1.19, 1.19, 1.19, 0.67, 0.67, 0.0, 0.0, 0.0, 0.0, 0.0, 0.0, 0.0, -0.58, -0.57, -0.57, -0.57, -1.2, -1.2, -1.2, -1.2, -1.76, -1.76, -1.76, -1.76, -1.76, -1.76, -2.06, -1.23, -1.8, -1.65, -1.65, -1.65, -1.65, -1.65, -1.8, -1.8, -1.8, -1.23, -1.23, -1.23, -1.23, -1.93, -1.88, -1.84, -0.71, -0.71, -0.81, 0.0, 0.0, 0.0, 0.0, 0.0, 0.0, 0.0, -0.88, -0.81, -0.88, 0.0, 2.4, 2.69, 1.84, 0.0, 0.0, 0.0, -3.0, -5.69, -2.83, 0.0, 6.32, 0.0, -2.28, 0.0, 1.54, 0.86, 0.0, -1.93, -1.14, 0.0, 0.67, 1.36, 2.09, 1.66, 1.6, 1.59, 1.54, 0.82, 0.89, 0.0, -2.6, -4.84, -3.22, -2.99, -1.1, -1.03, -1.03, 1.73, 1.73, 1.73, 1.19, 1.3, 1.3, 0.67, 0.67, 0.0, 0.0, 0.0, 0.0, 0.0, 0.0, 0.0, -0.58, -0.58, -0.57, -0.57, -0.61, -1.2, -1.2, -1.2, -1.76, -1.76, -1.76, -1.76, -1.76, -1.88, -1.88, -1.28, -1.32, -1.2, -1.2, -1.2, -1.32, -1.23, -1.23, -1.23, -1.23, -1.23, -1.23, -1.23, -1.32, -1.32, -1.88, -1.36, -1.44, -1.32, -0.77, -0.77, -0.73, -0.73, -0.69, -0.65, -0.67, -0.62, -0.64, -0.76, 0.0, 0.0, 0.0, 2.4, 2.54, 2.26, 0.0, 0.0, 0.0, -3.6, -2.69, 0.0, 4.2, 0.0, -5.2, -4.06, -0.75, 2.3, 3.25, 3.04, 1.61, 0.0, 0.0, 0.0, 0.0, 0.0, 0.52, 0.54, 0.53, 0.0, 0.0, -0.78, -2.6, -4.84, -4.29, -3.79, -1.84, -0.96, -0.96, 1.73, 1.73, 1.73, 1.19, 1.3, 0.67, 0.67, 0.67, 0.0, 0.0, 0.0, 0.0, 0.0, 0.0, 0.0, -0.58, -0.58, -0.57, -0.57, -0.57, -1.2, -1.2, -1.2, -1.2, -1.76, -1.76, -1.76, -1.76, -1.76, -1.88, -1.88, -1.28, -1.28, -1.28, -1.28, -1.28, -1.28, -1.4, -1.32, -1.32, -1.32, -1.32, -1.32, -1.32, -1.4, -1.28, -1.36, -1.36, -1.44, -1.44, -1.44, -1.44, -1.36, -0.69, -0.65, -0.67, -0.62, -0.64, -0.59, 0.0, 0.0, 0.0, 2.4, 2.54, 2.54, 2.54, 2.26, 0.0, 0.0, 0.0, 0.0, 0.0, 0.0, -2.59, -3.91, -1.57, 2.3, 4.71, 5.56, 3.98, 0.69, -0.72, -1.44, -1.42, -0.71, 0.0, 0.0, 0.0, -0.78, -1.63, -1.52, -2.4, -4.8, -4.8, -4.22, -3.84, -1.99, -1.99, 1.73, 1.73, 1.73, 1.19, 1.3, 0.67, 0.67, 0.67, 0.0, 0.0, 0.0, 0.0, 0.0, 0.0, 0.0, 0.0, -0.58, -0.53, -0.57, -0.57, -1.2, -1.2, -1.2, -1.2, -1.2, -1.76, -1.76, -1.76, -1.76, -1.88, -1.88, -1.88, -1.28, -1.28, -1.28, -1.28, -1.28, -1.28, -1.28, -1.4, -1.32, -1.32, -0.67, -0.67, -0.71, -1.28, -1.36, -1.36, -1.36, -1.44, -1.44, -1.36, -1.36, -1.4, -1.4, -1.32, -0.62, -0.64, -0.59, -0.7, 0.0, 0.0, 0.0, 0.0, 0.0, 2.06, 2.4, 0.0, 0.0, 0.0, 0.0, 0.0, 0.0, 1.84, 0.0, -0.93, 0.0, 2.31, 3.1, 2.84, 1.42, 0.0, 0.0, -0.79, -0.64, -0.72, -0.7, -1.47, -2.47, -2.35, -1.41, -2.4, -3.79, -4.8, -4.15, -3.22, -2.2, -2.2, 1.73, 1.73, 1.19, 1.3, 1.3, 0.67, 0.67, 0.67, 0.0, 0.0, 0.0, 0.0, 0.0, 0.0, 0.0, 0.0, -0.58, -0.58, -0.53, -0.57, -0.57, -1.2, -1.2, -1.2, -1.2, -1.76, -1.76, -1.76, -1.76, -1.76, -1.76, -1.88, -1.88, -1.88, -1.28, -1.28, -1.28, -1.28, -1.28, -1.28, -1.32, -1.32, -0.67, 0.0, -0.67, -1.28, -1.28, -2.0, -2.0, -2.0, -2.0, -2.18, -2.06, -1.4, -1.32, -1.45, -1.36, -1.26, -0.61, -0.7, -0.73, -0.88, 0.0, 0.0, 0.0, 0.0, 0.0, 0.0, 0.0, 0.0, -2.4, 0.0, 5.21, 6.16, 4.93, 1.91, -1.33, -2.19, -1.6, -0.7, 0.0, 0.71, 0.71, 0.0, 0.0, -0.57, -0.66, -2.0, -2.6, -2.11, -0.63, 0.0, -2.4, -4.09, -4.0, -1.6, 2.98, 0.0, 1.73, 1.73, 1.19, 1.3, 1.3, 0.67, 0.67, 0.0, 0.0, 0.0, 0.0, 0.0, 0.0, 0.0, 0.0, 0.0, -0.58, -0.58, -0.58, -0.57, -0.57, -1.12, -1.2, -1.2, -1.2, -1.2, -1.76, -1.76, -1.76, -1.76, -1.76, -1.76, -1.76, -1.76, -1.88, -1.28, -1.28, -1.28, -1.28, -1.32, -1.32, -1.32, -1.36, -1.14, 0.0, -0.65, -1.88, -2.06, -2.06, -2.06, -2.06, -2.06, -1.93, -1.93, -1.98, -1.84, -1.26, -1.3, -1.35, -1.35, -1.41, -0.88, 0.0, 0.0, 0.0, 0.0, 0.0, 0.0, 0.0, -2.4, 0.0, 0.0, 6.32, 5.72, 6.79, 6.43, 3.39, -2.6, -4.3, -3.19, -1.5, 0.0, 0.0, 0.0, 0.0, 0.0, 0.0, -0.73, -1.23, -0.63, 0.0, 0.82, 0.0, -1.08, 0.0, 2.8, 3.53, 2.98, 1.19, 1.19, 1.19, 1.3, 1.3, 0.67, 0.67, 0.0, 0.0, 0.0, 0.0, 0.0, 0.0, 0.0, 0.0, -0.64, -0.58, -0.58, -0.58, -0.53, -0.57, -1.12, -1.12, -1.2, -1.2, -1.2, -1.2, -1.76, -1.76, -1.76, -1.76, -1.76, -1.76, -1.76, -1.76, -1.2, -1.28, -1.28, -1.4, -1.32, -1.32, -1.32, -1.36, -1.26, -1.14, -0.65, -1.88, -1.98, -1.98, -1.98, -1.98, -1.98, -1.84, -1.84, -1.7, -1.88, -1.88, -1.35, -1.35, -1.55, -1.41, -1.66, -1.19, 0.0, 0.0, -1.95, -2.26, -1.73, -2.4, 0.0, 0.0, 3.4, 0.0, 0.0, 5.54, 8.01, 7.73, 4.78, 1.11, -1.26, -1.47, 0.0, 0.0, 0.81, 0.85, 1.02, 1.07, 0.0, 0.0, 0.0, 0.82, 0.82, 0.7, 0.81, 2.79, 4.52, 4.88, 3.53, 1.19, 1.19, 1.3, 1.3, 1.3, 0.67, 0.67, 0.0, 0.0, 0.0, 0.0, 0.0, 0.0, 0.0, 0.0, -0.64, -0.58, -0.58, -0.58, -0.58, -0.57, -1.12, -1.12, -1.2, -1.2, -1.2, -1.2, -1.2, -1.2, -1.76, -1.76, -1.76, -1.76, -1.76, -1.76, -1.76, -1.2, -1.32, -1.32, -1.32, -1.32, -1.32, -1.98, -1.98, -1.93, -2.06, -1.32, -1.98, -2.04, -2.04, -2.04, -2.04, -1.88, -1.88, -1.88, -1.88, -2.11, -1.47, -1.55, -1.55, -1.66, -1.66, -2.26, 0.0, 0.0, 0.0, -1.73, -1.95, 0.0, 0.0, 2.54, 3.4, -3.8, -7.6, 0.0, 6.58, 7.08, 6.71, 4.71, 3.09, 2.67, 2.83, 2.71, 2.06, 2.25, 1.69, 0.93, 0.0, 0.0, 0.0, 0.0, 0.0, 0.7, 3.11, 5.43, 6.0, 6.07, 6.07, 1.19, 1.19, 1.3, 1.3, 0.67, 0.67, 0.67, 0.0, 0.0, 0.0, 0.0, 0.0, 0.0, 0.0, -0.64, -0.64, -0.64, -0.58, -0.58, -0.58, -0.58, -1.12, -1.12, -1.12, -1.2, -1.2, -1.2, -1.2, -1.2, -1.2, -1.2, -1.2, -1.2, -1.93, -1.93, -1.93, -1.93, -1.93, -1.32, -1.32, -1.93, -1.93, -1.98, -1.8, -2.49, -2.0, -1.36, -1.4, -1.55, -1.45, -1.45, -1.36, -1.52, -1.52, -1.52, -1.41, -1.6, -1.47, -1.7, -1.7, -1.83, -1.66, -1.83, 0.0, 0.0, 0.0, 0.0, 0.0, 2.26, 4.22, 5.69, 0.0, -6.01, -7.21, -8.48, 0.0, 3.11, 4.75, 5.29, 6.21, 6.21, 5.68, 4.94, 4.24, 3.47, 1.63, 0.0, 0.0, 0.0, 0.0, 0.0, 0.0, 0.88, 2.84, 5.43, 6.55, 6.55, 6.55, 1.19, 1.19, 1.3, 1.3, 0.67, 0.67, 0.67, 0.0, 0.0, 0.0, 0.0, 0.0, 0.0, 0.0, -0.64, -0.64, -0.64, -0.58, -0.58, -1.14, -1.14, -1.23, -1.12, -1.12, -1.12, -1.2, -1.2, -1.2, -1.12, -1.12, -1.2, -1.32, -1.32, -1.32, -1.93, -1.93, -1.93, -1.93, -1.93, -1.93, -1.93, -1.93, -1.93, -1.93, -1.93, -1.88, -1.36, -1.36, -1.49, -1.49, -1.49, -0.79, -0.79, -0.74, -1.45, -1.52, -1.41, -1.6, -1.6, -1.7, -1.55, -1.41, -1.83, -2.54, 0.0, 0.0, 1.95, 2.54, 5.06, 6.32, 3.4, 0.0, -5.37, -7.81, -7.94, -7.6, -1.39, 1.84, 4.13, 6.2, 7.82, 7.84, 6.92, 5.57, 4.17, 2.71, 0.73, 0.0, -0.94, -0.83, -0.81, 0.0, 3.48, 4.19, 5.34, 6.66, 6.66, 6.66, 1.19, 1.19, 1.3, 1.3, 0.67, 0.67, 0.0, 0.0, 0.0, 0.0, 0.0, 0.0, 0.0, -0.64, -0.64, -0.64, -0.64, -0.64, -0.58, -1.14, -1.14, -1.14, -1.23, -1.12, -1.12, -1.12, -1.12, -1.12, -1.12, -1.23, -1.23, -1.23, -1.23, -1.32, -1.93, -1.93, -1.93, -1.93, -1.93, -1.93, -1.93, -1.93, -1.93, -1.93, -1.93, -2.06, -1.88, -1.36, -1.36, -1.49, -1.49, -1.4, -1.4, -1.4, -1.45, -1.36, -1.52, -1.41, -1.6, -1.47, -1.47, -1.55, -1.55, -0.81, 0.0, 0.0, 1.95, 2.4, 5.37, 3.97, 0.0, -3.2, -6.32, -7.2, -7.28, -7.15, -3.49, 0.0, 2.62, 5.38, 7.71, 9.18, 7.91, 5.65, 4.17, 3.53, 2.06, 0.77, 0.0, -0.89, 0.0, 4.15, 3.83, 4.46, 4.73, 6.71, 6.71, 6.71, 1.19, 1.19, 1.3, 0.67, 0.67, 0.67, 0.0, 0.0, 0.0, 0.0, 0.0, 0.0, 0.0, -0.64, -0.64, -0.64, -0.64, -0.64, -0.58, -1.14, -1.14, -1.14, -1.14, -1.23, -1.23, -1.12, -1.12, -1.12, -1.23, -1.23, -1.23, -1.23, -1.23, -1.23, -1.8, -1.93, -1.93, -1.93, -1.93, -1.93, -1.93, -1.93, -1.93, -1.93, -1.93, -1.93, -2.06, -2.06, -2.06, -2.06, -2.06, -1.4, -1.4, -1.4, -1.32, -1.36, -1.36, -1.41, -1.41, -1.3, -1.47, -1.35, -1.55, -1.55, -0.88, 0.0, 0.0, 0.0, 0.0, 0.0, -2.26, -3.97, -4.22, -4.46, -3.8, 0.0, 0.0, 0.0, 0.93, 4.17, 6.1, 7.7, 7.22, 5.65, 5.02, 4.24, 2.76, 1.36, 0.99, 0.0, 4.8, 4.22, 3.49, 3.83, 5.77, 6.71, 6.71, 6.71, 1.3, 1.3, 1.3, 0.67, 0.67, 0.67, 0.0, 0.0, 0.0, 0.0, 0.0, 0.0, -0.64, -0.64, -0.64, -0.64, -0.64, -0.64, -1.26, -1.14, -1.14, -1.14, -1.14, -1.23, -1.23, -1.23, -1.23, -1.23, -1.23, -1.23, -1.23, -1.23, -1.23, -1.8, -1.8, -1.8, -1.93, -1.93, -1.93, -1.93, -1.93, -1.93, -1.93, -1.93, -1.93, -1.93, -1.93, -2.06, -2.06, -2.06, -2.06, -2.06, -2.06, -2.06, -1.32, -1.36, -1.36, -1.41, -1.41, -1.3, -1.47, -1.35, -1.55, -1.41, -0.81, 0.0, 0.0, 0.0, 0.0, -2.4, -4.22, -4.22, -2.54, -2.06, 0.0, 0.0, 0.0, 0.0, 2.02, 4.18, 5.35, 5.45, 6.37, 7.21, 7.11, 5.02, 2.88, 2.59, 2.97, 4.47, 4.4, 3.48, 3.07, 4.24, 5.81, 6.71, 6.71, 6.71, 1.3, 1.3, 1.3, 0.67, 0.67, 0.0, 0.0, 0.0, 0.0, 0.0, 0.0, -0.64, -0.64, -0.64, -0.64, -0.64, -0.64, -0.64, -1.36, -1.23, -1.14, -1.14, -1.14, -1.14, -1.23, -1.23, -1.23, -1.23, -1.23, -1.23, -1.23, -1.23, -1.8, -1.8, -1.8, -1.8, -1.8, -1.8, -1.93, -1.93, -1.93, -1.93, -1.93, -1.93, -1.93, -1.93, -1.93, -1.93, -2.06, -2.06, -2.06, -2.06, -2.06, -1.93, -2.12, -1.98, -1.98, -2.2, -2.04, -1.3, -1.47, -1.35, -1.55, -1.41, -0.88, 0.0, 0.0, 0.0, 0.0, 0.0, 0.0, -1.95, -2.06, -1.67, 0.0, 0.0, 0.0, 0.0, 2.28, 3.3, 3.65, 3.91, 7.0, 9.18, 8.43, 6.4, 3.69, 4.0, 6.32, 3.16, 0.0, 1.55, 4.57, 5.36, 6.22, 6.71, 6.71, 6.71, 1.3, 1.3, 0.67, 0.67, 0.67, 0.0, 0.0, 0.0, 0.0, 0.0, 0.0, -0.64, -0.64, -0.64, -0.64, -0.64, -0.64, -1.36, -1.36, -1.36, -1.23, -1.14, -1.14, -1.14, -1.23, -1.23, -1.23, -1.23, -1.23, -1.23, -1.23, -1.23, -1.8, -1.8, -1.8, -1.8, -1.8, -1.8, -1.8, -1.8, -1.93, -1.93, -1.93, -1.93, -1.93, -1.93, -1.93, -1.93, -1.93, -1.93, -2.06, -1.93, -1.93, -1.93, -2.12, -2.12, -1.98, -2.2, -2.04, -2.04, -1.3, -1.47, -1.35, -1.41, -1.66, -1.63, 0.0, 0.0, 1.49, 1.58, 0.0, 0.0, -2.06, -1.58, -1.58, -1.58, 0.0, 0.0, 1.4, 3.52, 2.97, 3.51, 6.09, 8.36, 7.84, 5.81, 4.83, 6.4, 3.35, 0.0, 2.0, 4.92, 5.75, 6.65, 6.22, 6.22, 6.22, 6.22, 1.3, 1.3, 0.67, 0.67, 0.67, 0.67, 0.0, 0.0, 0.0, 0.0, 0.0, -0.64, -0.64, -0.64, -0.64, -0.64, -1.26, -1.36, -1.36, -1.36, -1.36, -1.14, -1.14, -1.14, -1.14, -1.23, -1.23, -1.23, -1.23, -1.23, -1.23, -1.8, -1.8, -1.8, -1.8, -1.8, -1.8, -1.8, -1.8, -1.8, -1.8, -1.93, -1.93, -1.93, -1.93, -1.93, -1.93, -1.93, -1.93, -1.93, -1.93, -1.93, -1.93, -2.12, -2.12, -2.12, -1.98, -2.2, -2.04, -2.04, -1.88, -1.47, -1.35, -1.41, -1.66, -1.52, -1.63, 0.0, 1.84, 0.0, 0.0, 0.0, -1.58, -3.15, -2.99, -1.95, 0.0, 0.0, 1.67, 2.83, 2.28, 3.3, 4.78, 4.68, 4.52, 1.52, 2.4, 3.9, 2.0, 4.4, 5.36, 7.42, 7.01, 6.98, 6.22, 6.66, 6.66, 6.66, 1.3, 1.3, 0.67, 0.67, 0.67, 0.67, 0.0, 0.0, 0.0, 0.0, 0.0, -0.64, -0.64, -0.64, -0.64, -0.64, -1.26, -1.26, -1.36, -1.36, -1.36, -1.26, -1.14, -1.14, -1.14, -1.14, -1.67, -1.8, -1.8, -1.8, -1.8, -1.8, -1.8, -1.8, -1.8, -1.8, -1.8, -1.8, -1.8, -1.8, -1.8, -1.93, -1.93, -1.93, -1.93, -1.93, -1.93, -1.93, -1.93, -1.93, -1.93, -1.93, -1.93, -2.12, -2.12, -2.12, -1.98, -2.2, -2.04, -2.04, -1.88, -2.11, -1.94, -2.0, -1.49, -1.6, -1.63, -2.12, 0.0, 0.0, 0.0, 0.0, 0.0, -3.0, -3.15, -3.6, -2.06, 0.0, 0.0, 1.75, 2.46, 2.17, 2.17, 1.62, 0.0, 0.0, 0.7, 2.84, 0.0, 4.11, 7.33, 7.48, 6.07, 6.51, 6.98, 7.85, 7.85, 7.85, 1.3, 1.3, 0.67, 0.67, 0.67, 0.0, 0.0, 0.0, 0.0, 0.0, 0.0, -0.64, -0.64, -0.64, -0.64, -1.26, -1.26, -1.26, -1.36, -1.36, -1.36, -1.26, -1.14, -1.14, -1.67, -1.67, -1.67, -1.67, -1.67, -1.67, -1.67, -1.67, -1.67, -1.8, -1.8, -1.8, -1.8, -1.8, -1.8, -1.8, -1.8, -1.8, -1.93, -1.93, -1.93, -1.93, -1.93, -1.93, -1.93, -1.93, -1.93, -1.93, -2.12, -2.12, -2.12, -2.12, -1.98, -2.2, -2.2, -2.04, -2.04, -2.11, -1.94, -1.94, -1.49, -1.6, -2.12, -2.12, -3.0, 0.0, 0.0, 0.0, 0.0, -2.12, -4.29, -3.4, 0.0, 0.0, 0.0, 0.0, 0.0, 1.2, 1.05, 0.0, -0.7, -0.69, 0.0, 0.0, 0.0, 4.83, 6.01, 6.7, 6.02, 6.99, 8.06, 8.77, 8.77, 8.77, 0.67, 0.67, 0.67, 0.67, 0.67, 0.0, 0.0, 0.0, 0.0, 0.0, 0.0, -0.64, -0.64, -0.64, -0.64, -1.26, -1.26, -1.26, -1.36, -1.36, -1.36, -1.26, -1.26, -1.67, -1.67, -1.67, -1.67, -1.67, -1.67, -1.67, -1.67, -1.67, -1.67, -1.67, -1.67, -1.8, -1.8, -1.8, -1.8, -1.8, -1.8, -1.8, -1.8, -1.8, -1.93, -1.93, -1.93, -1.93, -1.93, -1.93, -1.93, -2.72, -2.72, -2.72, -2.72, -2.72, -2.54, -2.2, -2.2, -2.04, -2.04, -2.11, -2.11, -1.94, -1.49, -1.6, -1.6, -1.6, -2.26, -3.2, -3.2, -5.37, -2.4, 0.0, 3.6, 0.0, 0.0, 0.0, 0.0, 0.0, 0.0, 0.0, 0.0, 0.79, 0.0, 0.0, -0.72, -3.2, 4.46, 5.59, 5.35, 5.82, 6.8, 8.0, 8.58, 8.99, 8.99, 8.99, 0.67, 0.67, 0.67, 0.67, 0.67, 0.0, 0.0, 0.0, 0.0, 0.0, 0.0, -0.64, -0.64, -0.64, -0.64, -1.26, -1.26, -1.36, -1.36, -1.36, -1.36, -1.26, -1.26, -1.84, -1.84, -1.67, -1.67, -1.67, -1.67, -1.67, -1.67, -1.67, -1.67, -1.67, -1.67, -1.67, -1.8, -1.8, -1.8, -1.8, -1.8, -1.8, -1.8, -1.8, -1.8, -1.8, -1.93, -1.93, -1.93, -1.93, -2.49, -2.72, -2.72, -2.72, -2.72, -2.54, -2.54, -2.8, -2.8, -2.6, -2.29, -2.11, -2.11, -1.94, -2.0, -1.33, -1.4, -1.4, -3.0, -2.26, -2.4, -2.4, -2.54, 0.0, 2.69, 3.6, 5.69, 0.0, 0.0, 0.0, 0.0, 0.0, 0.85, 2.31, 3.07, 0.74, -2.32, -7.6, 5.44, 5.78, 5.94, 7.06, 7.96, 8.6, 8.99, 8.91, 8.91, 8.91, 0.61, 0.61, 0.67, 0.67, 0.67, 0.0, 0.0, 0.0, 0.0, 0.0, 0.0, -0.64, -0.64, -0.64, -0.64, -1.26, -1.26, -1.36, -1.36, -1.36, -1.36, -1.36, -1.84, -1.84, -1.84, -1.84, -1.84, -1.67, -1.67, -1.67, -1.67, -1.67, -1.67, -1.67, -1.67, -1.67, -1.67, -1.8, -1.8, -1.8, -1.8, -1.8, -1.8, -1.8, -1.8, -1.8, -1.8, -1.93, -1.93, -1.93, -2.49, -2.72, -2.72, -2.72, -2.72, -2.54, -2.54, -2.8, -2.8, -2.6, -2.88, -2.66, -2.66, -1.94, -2.0, -1.8, -1.84, -1.4, -1.8, -2.26, -2.4, -2.4, 0.0, 0.0, 2.06, 0.0, 0.0, -5.69, -3.4, -3.4, -2.4, 0.0, 0.0, 1.5, 3.1, 2.33, -1.72, -0.0, 5.59, 5.86, 6.58, 7.96, 8.55, 8.55, 8.99, 9.4, 9.4, 9.4, 0.61, 0.61, 0.67, 0.67, 0.67, 0.0, 0.0, 0.0, 0.0, 0.0, 0.0, -0.64, -0.64, -0.64, -0.64, -1.26, -1.26, -1.36, -1.36, -1.36, -1.36, -1.98, -1.84, -1.84, -1.84, -1.84, -1.84, -1.84, -1.84, -1.84, -1.84, -1.84, -1.84, -1.84, -1.84, -1.84, -1.84, -1.84, -1.8, -1.8, -1.8, -1.8, -1.8, -1.8, -1.8, -1.8, -1.8, -1.93, -1.93, -1.93, -2.72, -2.72, -2.72, -2.72, -2.54, -2.54, -2.54, -2.8, -2.8, -2.8, -2.88, -2.88, -2.66, -2.44, -2.44, -2.48, -1.8, -1.84, -2.07, -4.74, -3.2, -2.26, -2.4, 0.0, 0.0, 0.0, 0.0, -3.6, -5.69, -3.6, -2.4, 0.0, 0.0, 0.0, 0.76, 2.32, 0.0, 0.0, 7.51, 6.83, 7.22, 8.24, 8.93, 8.93, 8.99, 9.55, 9.55, 9.55, 0.61, 0.61, 0.67, 0.67, 0.67, 0.0, 0.0, 0.0, 0.0, 0.0, 0.0, -0.64, -0.64, -0.64, -0.64, -1.41, -1.41, -1.52, -1.36, -1.36, -1.98, -1.98, -1.84, -1.84, -1.84, -1.84, -1.84, -1.84, -1.84, -1.84, -1.84, -1.84, -1.84, -1.84, -1.84, -1.84, -1.84, -1.84, -1.84, -1.98, -1.8, -1.8, -1.8, -1.8, -1.8, -1.8, -1.8, -1.8, -1.93, -1.93, -2.72, -2.72, -2.72, -2.54, -2.54, -2.54, -2.54, -2.8, -2.8, -2.8, -2.88, -2.88, -2.66, -2.66, -2.44, -2.44, -2.48, -2.48, -2.79, -5.06, -5.06, -3.97, -3.2, 0.0, 0.0, 0.0, 0.0, 0.0, -3.4, 0.0, 0.0, 0.0, -1.25, -0.8, -0.75, 0.76, 0.78, 0.7, 3.25, 10.41, 8.35, 8.65, 8.68, 8.93, 8.99, 9.4, 9.4, 9.4, 0.61, 0.61, 0.67, 0.67, 0.67, 0.0, 0.0, 0.0, 0.0, 0.0, 0.0, -0.64, -0.64, -0.64, -0.64, -1.41, -1.41, -1.52, -1.52, -1.36, -1.98, -1.98, -1.84, -1.84, -1.84, -1.84, -1.84, -1.84, -1.84, -1.84, -1.84, -1.84, -1.84, -1.84, -1.84, -1.84, -1.84, -1.84, -1.84, -1.84, -1.84, -1.8, -1.8, -1.8, -1.8, -1.8, -1.8, -1.8, -1.8, -1.93, -2.72, -2.54, -2.54, -2.54, -2.54, -2.54, -2.54, -2.8, -2.8, -2.8, -2.88, -2.88, -2.66, -2.66, -2.44, -2.44, -2.44, -3.15, -3.15, -3.43, -4.11, -4.22, -3.2, -3.2, 0.0, 0.0, 0.0, 0.0, 0.0, 0.0, 0.0, 0.0, -1.25, -1.58, -1.54, -0.78, 0.0, 1.43, 1.44, 2.1, 10.73, 9.3, 9.05, 9.42, 9.6, 9.4, 9.4, 9.4, 0.61, 0.61, 0.67, 0.67, 0.59, 0.0, 0.0, 0.0, 0.0, 0.0, 0.0, -0.64, -0.64, -0.64, -0.72, -1.41, -1.52, -1.52, -1.52, -1.52, -2.2, -1.98, -1.84, -1.84, -1.84, -1.84, -1.84, -1.84, -1.84, -1.84, -1.84, -1.84, -1.84, -1.84, -1.84, -1.84, -1.84, -1.84, -1.84, -1.84, -1.84, -1.84, -1.8, -1.8, -1.8, -1.8, -1.8, -1.8, -1.8, -1.8, -2.54, -2.54, -2.54, -2.54, -2.54, -2.54, -2.54, -2.8, -2.8, -2.8, -2.88, -2.88, -2.66, -3.12, -3.12, -2.86, -2.86, -3.15, -3.43, -3.43, -3.72, -5.37, -2.26, -2.54, 0.0, 0.0, 0.0, 0.0, 0.0, 0.0, 0.0, -1.84, -2.54, -2.69, -2.25, -0.77, 0.0, 1.51, 2.1, 2.06, 4.6, 10.73, 9.77, 9.6, 9.36, 9.13, 9.13, 9.13, 0.67, 0.67, 0.67, 0.59, 0.0, 0.0, 0.0, 0.0, 0.0, 0.0, 0.0, -0.64, -0.64, -0.64, -0.72, -1.41, -1.52, -1.52, -1.52, -2.2, -2.2, -2.2, -1.84, -1.84, -1.84, -1.84, -1.84, -1.84, -1.84, -1.84, -1.84, -1.84, -1.84, -1.84, -1.84, -1.84, -1.84, -1.84, -1.84, -1.84, -1.84, -1.84, -1.98, -1.8, -1.8, -1.8, -1.8, -1.8, -1.8, -1.8, -2.72, -2.54, -2.54, -2.54, -2.54, -2.54, -2.54, -2.8, -2.8, -2.8, -2.6, -3.38, -3.38, -3.12, -3.12, -2.86, -2.86, -3.12, -3.43, -3.43, -3.43, -3.22, -2.4, -2.54, 0.0, 0.0, 0.0, 0.0, 0.0, 0.0, -3.6, -3.4, -4.14, -2.98, -2.21, -0.78, 0.74, 2.25, 3.04, 3.82, 4.25, 9.2, 10.04, 9.36, 9.55, 9.4, 9.4, 9.4, 0.67, 0.67, 0.67, 0.59, 0.0, 0.0, 0.0, 0.0, 0.0, 0.0, 0.0, -0.64, -0.64, -0.64, -0.72, -1.41, -1.52, -1.52, -1.52, -2.2, -2.2, -2.2, -1.84, -1.84, -1.84, -1.84, -1.84, -1.84, -1.84, -1.84, -1.84, -1.84, -1.84, -1.84, -1.84, -1.84, -1.84, -1.84, -1.84, -1.84, -1.84, -1.84, -1.98, -1.8, -1.8, -1.8, -1.8, -1.8, -1.8, -1.8, -2.72, -2.54, -2.54, -2.54, -2.54, -2.54, -2.54, -2.8, -2.8, -2.8, -2.6, -3.38, -3.38, -3.12, -3.12, -2.86, -2.86, -3.12, -3.43, -3.43, -3.43, -3.22, -2.4, -2.54, 0.0, 0.0, 0.0, 0.0, 0.0, 0.0, -3.6, -4.46, -2.99, -2.98, -1.68, -0.8, 0.76, 2.33, 3.07, 4.55, 5.2, 6.77, 10.28, 9.97, 9.63, 9.63, 9.63, 9.63]}]